Observation data for Coyanosa on 11/22/2019      Previous  Date       Current Mesonet Observations  Soil Data  Daily Summary Page  Observations in Plain Language
KCO1 220600Z 34005KT 10/07 A3011 RMK A01 T00960071  RH  085%=      5-min Rain = 0
KCO1 220601Z 34008KT 10/07 A3011 RMK A01 T00960071  RH  085%=      5-min Rain = 0
KCO1 220602Z 34008KT 10/07 A3011 RMK A01 T00950071  RH  085%=      5-min Rain = 0
KCO1 220603Z 35008KT 10/07 A3011 RMK A01 T00950071  RH  085%=      5-min Rain = 0
KCO1 220604Z 35006KT 10/07 A3011 RMK A01 T00960070  RH  084%=      5-min Rain = 0
KCO1 220605Z 34006KT 10/07 A3011 RMK A01 T00950070  RH  084%=      5-min Rain = 0
KCO1 220606Z 34006KT 10/07 A3011 RMK A01 T00950070  RH  084%=      5-min Rain = 0
KCO1 220607Z 34006KT 10/07 A3011 RMK A01 T00950071  RH  085%=      5-min Rain = 0
KCO1 220608Z 34006KT 10/07 A3011 RMK A01 T00950071  RH  085%=      5-min Rain = 0
KCO1 220609Z 34006KT 09/07 A3011 RMK A01 T00940070  RH  085%=      5-min Rain = 0
KCO1 220610Z 34005KT 09/07 A3011 RMK A01 T00940070  RH  085%=      5-min Rain = 0
KCO1 220611Z 34006KT 09/07 A3011 RMK A01 T00940070  RH  085%=      5-min Rain = 0
KCO1 220612Z 34006KT 09/07 A3011 RMK A01 T00940070  RH  085%=      5-min Rain = 0
KCO1 220613Z 35005KT 09/07 A3011 RMK A01 T00940069  RH  085%=      5-min Rain = 0
KCO1 220614Z 35007KT 09/07 A3011 RMK A01 T00940069  RH  085%=      5-min Rain = 0
KCO1 220615Z 35005KT 09/07 A3011 RMK A01 T00940068  RH  084%=      5-min Rain = 0
KCO1 220616Z 35005KT 09/07 A3012 RMK A01 T00930068  RH  084%=      5-min Rain = 0
KCO1 220617Z 34005KT 09/07 A3012 RMK A01 T00930068  RH  084%=      5-min Rain = 0
KCO1 220618Z 34005KT 09/07 A3012 RMK A01 T00930068  RH  084%=      5-min Rain = 0
KCO1 220619Z 34005KT 09/07 A3012 RMK A01 T00930068  RH  085%=      5-min Rain = 0
KCO1 220620Z 34005KT 09/07 A3012 RMK A01 T00930068  RH  085%=      5-min Rain = 0
KCO1 220621Z 35005KT 09/07 A3012 RMK A01 T00920068  RH  085%=      5-min Rain = 0
KCO1 220622Z 35006KT 09/07 A3012 RMK A01 T00920067  RH  085%=      5-min Rain = 0
KCO1 220623Z 35007KT 09/07 A3012 RMK A01 T00920067  RH  084%=      5-min Rain = 0
KCO1 220624Z 35007KT 09/07 A3012 RMK A01 T00920067  RH  084%=      5-min Rain = 0
KCO1 220625Z 36008KT 09/07 A3011 RMK A01 T00910067  RH  085%=      5-min Rain = 0
KCO1 220626Z 00007KT 09/07 A3012 RMK A01 T00910066  RH  084%=      5-min Rain = 0
KCO1 220627Z 00007KT 09/07 A3012 RMK A01 T00910066  RH  084%=      5-min Rain = 0
KCO1 220628Z 00006KT 09/07 A3012 RMK A01 T00910066  RH  084%=      5-min Rain = 0
KCO1 220629Z 01006KT 09/07 A3012 RMK A01 T00910066  RH  084%=      5-min Rain = 0
KCO1 220630Z 00006KT 09/07 A3012 RMK A01 T00910065  RH  084%=      5-min Rain = 0
KCO1 220631Z 00005KT 09/07 A3012 RMK A01 T00900066  RH  084%=      5-min Rain = 0
KCO1 220632Z 36006KT 09/07 A3012 RMK A01 T00900066  RH  085%=      5-min Rain = 0
KCO1 220633Z 36006KT 09/07 A3012 RMK A01 T00900065  RH  085%=      5-min Rain = 0
KCO1 220634Z 00007KT 09/07 A3012 RMK A01 T00900065  RH  085%=      5-min Rain = 0
KCO1 220635Z 36006KT 09/07 A3012 RMK A01 T00890065  RH  085%=      5-min Rain = 0
KCO1 220636Z 35007KT 09/07 A3012 RMK A01 T00900065  RH  085%=      5-min Rain = 0
KCO1 220637Z 35006KT 09/07 A3012 RMK A01 T00890065  RH  085%=      5-min Rain = 0
KCO1 220638Z 34006KT 09/07 A3012 RMK A01 T00890065  RH  085%=      5-min Rain = 0
KCO1 220639Z 35007KT 09/07 A3012 RMK A01 T00890065  RH  085%=      5-min Rain = 0
KCO1 220640Z 35007KT 09/07 A3012 RMK A01 T00890065  RH  085%=      5-min Rain = 0
KCO1 220641Z 35006KT 09/07 A3012 RMK A01 T00890065  RH  085%=      5-min Rain = 0
KCO1 220642Z 35006KT 09/07 A3012 RMK A01 T00890065  RH  085%=      5-min Rain = 0
KCO1 220643Z 35006KT 09/07 A3012 RMK A01 T00890065  RH  085%=      5-min Rain = 0
KCO1 220644Z 35005KT 09/06 A3012 RMK A01 T00880064  RH  085%=      5-min Rain = 0
KCO1 220645Z 35005KT 09/06 A3012 RMK A01 T00880064  RH  085%=      5-min Rain = 0
KCO1 220646Z 35005KT 09/06 A3012 RMK A01 T00880064  RH  085%=      5-min Rain = 0
KCO1 220647Z 35005KT 09/06 A3012 RMK A01 T00880064  RH  085%=      5-min Rain = 0
KCO1 220648Z 34005KT 09/06 A3012 RMK A01 T00870064  RH  085%=      5-min Rain = 0
KCO1 220649Z 34006KT 09/06 A3012 RMK A01 T00870064  RH  086%=      5-min Rain = 0
KCO1 220650Z 34006KT 09/06 A3012 RMK A01 T00870064  RH  086%=      5-min Rain = 0
KCO1 220651Z 34005KT 09/06 A3012 RMK A01 T00870064  RH  086%=      5-min Rain = 0
KCO1 220652Z 35005KT 09/06 A3012 RMK A01 T00870064  RH  086%=      5-min Rain = 0
KCO1 220653Z 34006KT 09/06 A3012 RMK A01 T00860064  RH  086%=      5-min Rain = 0
KCO1 220654Z 35007KT 09/06 A3012 RMK A01 T00860064  RH  086%=      5-min Rain = 0
KCO1 220655Z 34006KT 09/06 A3012 RMK A01 T00860064  RH  086%=      5-min Rain = 0
KCO1 220656Z 34005KT 09/06 A3012 RMK A01 T00860064  RH  086%=      5-min Rain = 0
KCO1 220657Z 34005KT 09/06 A3012 RMK A01 T00860064  RH  086%=      5-min Rain = 0
KCO1 220658Z 34004KT 09/06 A3012 RMK A01 T00860064  RH  086%=      5-min Rain = 0
KCO1 220659Z 35004KT 09/06 A3012 RMK A01 T00860063  RH  086%=      5-min Rain = 0
KCO1 220700Z 35004KT 09/06 A3012 RMK A01 T00850063  RH  086%=      5-min Rain = 0
KCO1 220701Z 35005KT 08/06 A3012 RMK A01 T00840062  RH  086%=      5-min Rain = 0
KCO1 220702Z 35005KT 08/06 A3012 RMK A01 T00840062  RH  086%=      5-min Rain = 0
KCO1 220703Z 35005KT 08/06 A3012 RMK A01 T00840062  RH  086%=      5-min Rain = 0
KCO1 220704Z 35006KT 08/06 A3012 RMK A01 T00840063  RH  086%=      5-min Rain = 0
KCO1 220705Z 35006KT 08/06 A3012 RMK A01 T00840063  RH  086%=      5-min Rain = 0
KCO1 220706Z 35006KT 08/06 A3012 RMK A01 T00840063  RH  086%=      5-min Rain = 0
KCO1 220707Z 35006KT 09/06 A3012 RMK A01 T00850063  RH  086%=      5-min Rain = 0
KCO1 220708Z 34005KT 09/06 A3012 RMK A01 T00850063  RH  086%=      5-min Rain = 0
KCO1 220709Z 35006KT 09/06 A3012 RMK A01 T00850063  RH  086%=      5-min Rain = 0
KCO1 220710Z 34005KT 09/06 A3012 RMK A01 T00850063  RH  086%=      5-min Rain = 0
KCO1 220711Z 35005KT 08/06 A3012 RMK A01 T00840063  RH  086%=      5-min Rain = 0
KCO1 220712Z 35005KT 08/06 A3012 RMK A01 T00840062  RH  086%=      5-min Rain = 0
KCO1 220713Z 35005KT 08/06 A3012 RMK A01 T00830062  RH  086%=      5-min Rain = 0
KCO1 220714Z 36004KT 08/06 A3012 RMK A01 T00830061  RH  086%=      5-min Rain = 0
KCO1 220715Z 36004KT 08/06 A3012 RMK A01 T00820061  RH  087%=      5-min Rain = 0
KCO1 220716Z 00003KT 08/06 A3012 RMK A01 T00820061  RH  087%=      5-min Rain = 0
KCO1 220717Z 00004KT 08/06 A3012 RMK A01 T00820061  RH  087%=      5-min Rain = 0
KCO1 220718Z 36004KT 08/06 A3012 RMK A01 T00810061  RH  087%=      5-min Rain = 0
KCO1 220719Z 00004KT 08/06 A3012 RMK A01 T00810061  RH  087%=      5-min Rain = 0
KCO1 220720Z 00004KT 08/06 A3012 RMK A01 T00800061  RH  088%=      5-min Rain = 0
KCO1 220721Z 00004KT 08/06 A3012 RMK A01 T00800061  RH  088%=      5-min Rain = 0
KCO1 220722Z 00004KT 08/06 A3012 RMK A01 T00800061  RH  088%=      5-min Rain = 0
KCO1 220723Z 00004KT 08/06 A3012 RMK A01 T00790060  RH  088%=      5-min Rain = 0
KCO1 220724Z 00003KT 08/06 A3012 RMK A01 T00790060  RH  088%=      5-min Rain = 0
KCO1 220725Z 00003KT 08/06 A3012 RMK A01 T00780060  RH  088%=      5-min Rain = 0
KCO1 220726Z 35003KT 08/06 A3012 RMK A01 T00780060  RH  088%=      5-min Rain = 0
KCO1 220727Z 35003KT 08/06 A3012 RMK A01 T00780060  RH  089%=      5-min Rain = 0
KCO1 220728Z 36003KT 08/06 A3012 RMK A01 T00770060  RH  089%=      5-min Rain = 0
KCO1 220729Z 35003KT 08/06 A3012 RMK A01 T00770060  RH  089%=      5-min Rain = 0
KCO1 220730Z 36003KT 08/06 A3012 RMK A01 T00770060  RH  089%=      5-min Rain = 0
KCO1 220731Z 36003KT 08/06 A3012 RMK A01 T00770060  RH  089%=      5-min Rain = 0
KCO1 220732Z 36004KT 08/06 A3012 RMK A01 T00770060  RH  089%=      5-min Rain = 0
KCO1 220733Z 00003KT 08/06 A3012 RMK A01 T00760060  RH  089%=      5-min Rain = 0
KCO1 220734Z 00003KT 08/06 A3012 RMK A01 T00760060  RH  089%=      5-min Rain = 0
KCO1 220735Z 00003KT 08/06 A3012 RMK A01 T00760060  RH  090%=      5-min Rain = 0
KCO1 220736Z 00003KT 08/06 A3012 RMK A01 T00760060  RH  090%=      5-min Rain = 0
KCO1 220737Z 00003KT 08/06 A3012 RMK A01 T00760060  RH  090%=      5-min Rain = 0
KCO1 220738Z 00002KT 08/06 A3012 RMK A01 T00760060  RH  090%=      5-min Rain = 0
KCO1 220739Z 00002KT 08/06 A3012 RMK A01 T00760060  RH  090%=      5-min Rain = 0
KCO1 220740Z 00002KT 08/06 A3012 RMK A01 T00760060  RH  090%=      5-min Rain = 0
KCO1 220741Z 01002KT 08/06 A3012 RMK A01 T00750060  RH  090%=      5-min Rain = 0
KCO1 220742Z 01002KT 08/06 A3012 RMK A01 T00750060  RH  090%=      5-min Rain = 0
KCO1 220743Z 02002KT 08/06 A3012 RMK A01 T00750060  RH  090%=      5-min Rain = 0
KCO1 220744Z 03002KT 08/06 A3012 RMK A01 T00750060  RH  090%=      5-min Rain = 0
KCO1 220745Z 03002KT 08/06 A3012 RMK A01 T00750060  RH  090%=      5-min Rain = 0
KCO1 220746Z 03001KT 08/06 A3012 RMK A01 T00750060  RH  090%=      5-min Rain = 0
KCO1 220747Z 03001KT 07/06 A3012 RMK A01 T00740060  RH  090%=      5-min Rain = 0
KCO1 220748Z 04001KT 07/06 A3012 RMK A01 T00740059  RH  090%=      5-min Rain = 0
KCO1 220749Z 07001KT 07/06 A3012 RMK A01 T00740059  RH  090%=      5-min Rain = 0
KCO1 220750Z 08001KT 07/06 A3012 RMK A01 T00730059  RH  091%=      5-min Rain = 0
KCO1 220751Z 07001KT 07/06 A3012 RMK A01 T00740060  RH  091%=      5-min Rain = 0
KCO1 220752Z 07001KT 07/06 A3012 RMK A01 T00740060  RH  091%=      5-min Rain = 0
KCO1 220753Z 07000KT 07/06 A3012 RMK A01 T00730059  RH  091%=      5-min Rain = 0
KCO1 220754Z 00000KT 07/06 A3012 RMK A01 T00720057  RH  090%=      5-min Rain = 0
KCO1 220755Z 00000KT 07/06 A3012 RMK A01 T00710056  RH  090%=      5-min Rain = 0
KCO1 220756Z 00000KT 07/06 A3012 RMK A01 T00700056  RH  091%=      5-min Rain = 0
KCO1 220757Z 04000KT 07/06 A3012 RMK A01 T00710059  RH  092%=      5-min Rain = 0
KCO1 220758Z 27001KT 07/06 A3012 RMK A01 T00720061  RH  092%=      5-min Rain = 0
KCO1 220759Z 28001KT 07/06 A3012 RMK A01 T00730061  RH  092%=      5-min Rain = 0
KCO1 220800Z 29001KT 07/06 A3012 RMK A01 T00730060  RH  092%=      5-min Rain = 0
KCO1 220801Z 29001KT 07/06 A3012 RMK A01 T00730060  RH  092%=      5-min Rain = 0
KCO1 220802Z 29000KT 07/06 A3012 RMK A01 T00730060  RH  092%=      5-min Rain = 0
KCO1 220803Z 00000KT 07/06 A3012 RMK A01 T00730060  RH  092%=      5-min Rain = 0
KCO1 220804Z 00000KT 07/06 A3012 RMK A01 T00730060  RH  091%=      5-min Rain = 0
KCO1 220805Z 00000KT 07/06 A3012 RMK A01 T00730060  RH  091%=      5-min Rain = 0
KCO1 220806Z 00000KT 07/06 A3012 RMK A01 T00730059  RH  091%=      5-min Rain = 0
KCO1 220807Z 29000KT 07/06 A3012 RMK A01 T00730059  RH  091%=      5-min Rain = 0
KCO1 220808Z 29000KT 07/06 A3012 RMK A01 T00730059  RH  091%=      5-min Rain = 0
KCO1 220809Z 29000KT 07/06 A3012 RMK A01 T00730060  RH  091%=      5-min Rain = 0
KCO1 220810Z 00000KT 07/06 A3012 RMK A01 T00720060  RH  092%=      5-min Rain = 0
KCO1 220811Z 29000KT 07/06 A3012 RMK A01 T00730060  RH  092%=      5-min Rain = 0
KCO1 220812Z 30001KT 07/06 A3012 RMK A01 T00720059  RH  092%=      5-min Rain = 0
KCO1 220813Z 30001KT 07/06 A3012 RMK A01 T00710057  RH  091%=      5-min Rain = 0
KCO1 220814Z 30001KT 07/06 A3012 RMK A01 T00690056  RH  091%=      5-min Rain = 0
KCO1 220815Z 28001KT 07/05 A3012 RMK A01 T00680054  RH  091%=      5-min Rain = 0
KCO1 220816Z 26001KT 07/06 A3012 RMK A01 T00680055  RH  091%=      5-min Rain = 0
KCO1 220817Z 26001KT 07/06 A3012 RMK A01 T00680056  RH  092%=      5-min Rain = 0
KCO1 220818Z 26001KT 07/06 A3012 RMK A01 T00690057  RH  092%=      5-min Rain = 0
KCO1 220819Z 25001KT 07/06 A3012 RMK A01 T00700059  RH  093%=      5-min Rain = 0
KCO1 220820Z 24001KT 07/06 A3012 RMK A01 T00710061  RH  093%=      5-min Rain = 0
KCO1 220821Z 22001KT 07/06 A3013 RMK A01 T00720061  RH  093%=      5-min Rain = 0
KCO1 220822Z 21001KT 07/06 A3013 RMK A01 T00720061  RH  093%=      5-min Rain = 0
KCO1 220823Z 21001KT 07/06 A3013 RMK A01 T00720061  RH  093%=      5-min Rain = 0
KCO1 220824Z 21001KT 07/06 A3013 RMK A01 T00710060  RH  092%=      5-min Rain = 0
KCO1 220825Z 21001KT 07/06 A3013 RMK A01 T00700058  RH  092%=      5-min Rain = 0
KCO1 220826Z 21001KT 07/06 A3013 RMK A01 T00690057  RH  092%=      5-min Rain = 0
KCO1 220827Z 21001KT 07/06 A3013 RMK A01 T00690057  RH  092%=      5-min Rain = 0
KCO1 220828Z 22001KT 07/06 A3013 RMK A01 T00690057  RH  092%=      5-min Rain = 0
KCO1 220829Z 22001KT 07/06 A3013 RMK A01 T00680056  RH  092%=      5-min Rain = 0
KCO1 220830Z 21002KT 07/06 A3013 RMK A01 T00680056  RH  092%=      5-min Rain = 0
KCO1 220831Z 20002KT 07/06 A3013 RMK A01 T00680057  RH  093%=      5-min Rain = 0
KCO1 220832Z 19003KT 07/06 A3013 RMK A01 T00680057  RH  093%=      5-min Rain = 0
KCO1 220833Z 19002KT 07/06 A3013 RMK A01 T00680057  RH  093%=      5-min Rain = 0
KCO1 220834Z 19002KT 07/06 A3013 RMK A01 T00680057  RH  093%=      5-min Rain = 0
KCO1 220835Z 19002KT 07/06 A3013 RMK A01 T00670057  RH  093%=      5-min Rain = 0
KCO1 220836Z 19002KT 07/06 A3013 RMK A01 T00680058  RH  093%=      5-min Rain = 0
KCO1 220837Z 19002KT 07/06 A3013 RMK A01 T00680058  RH  093%=      5-min Rain = 0
KCO1 220838Z 19002KT 07/06 A3013 RMK A01 T00680058  RH  093%=      5-min Rain = 0
KCO1 220839Z 18002KT 07/06 A3013 RMK A01 T00680058  RH  093%=      5-min Rain = 0
KCO1 220840Z 18002KT 07/06 A3013 RMK A01 T00680058  RH  093%=      5-min Rain = 0
KCO1 220841Z 18003KT 07/06 A3013 RMK A01 T00690058  RH  093%=      5-min Rain = 0
KCO1 220842Z 17003KT 07/06 A3013 RMK A01 T00680057  RH  093%=      5-min Rain = 0
KCO1 220843Z 17003KT 07/06 A3013 RMK A01 T00670055  RH  092%=      5-min Rain = 0
KCO1 220844Z 17003KT 07/06 A3013 RMK A01 T00660055  RH  092%=      5-min Rain = 0
KCO1 220845Z 17003KT 07/06 A3013 RMK A01 T00660055  RH  093%=      5-min Rain = 0
KCO1 220846Z 17003KT 07/06 A3013 RMK A01 T00660055  RH  093%=      5-min Rain = 0
KCO1 220847Z 17003KT 07/06 A3013 RMK A01 T00660056  RH  093%=      5-min Rain = 0
KCO1 220848Z 18003KT 07/06 A3013 RMK A01 T00660057  RH  094%=      5-min Rain = 0
KCO1 220849Z 18004KT 07/06 A3013 RMK A01 T00660057  RH  094%=      5-min Rain = 0
KCO1 220850Z 17004KT 07/06 A3013 RMK A01 T00670058  RH  094%=      5-min Rain = 0
KCO1 220851Z 17004KT 07/06 A3013 RMK A01 T00670058  RH  094%=      5-min Rain = 0
KCO1 220852Z 17003KT 07/06 A3013 RMK A01 T00670058  RH  094%=      5-min Rain = 0
KCO1 220853Z 16003KT 07/06 A3013 RMK A01 T00680059  RH  094%=      5-min Rain = 0
KCO1 220854Z 16003KT 07/06 A3013 RMK A01 T00690060  RH  094%=      5-min Rain = 0
KCO1 220855Z 15003KT 07/06 A3013 RMK A01 T00700061  RH  094%=      5-min Rain = 0
KCO1 220856Z 12002KT 07/06 A3013 RMK A01 T00700062  RH  094%=      5-min Rain = 0
KCO1 220857Z 13001KT 07/06 A3013 RMK A01 T00720064  RH  094%=      5-min Rain = 0
KCO1 220858Z 06001KT 07/06 A3013 RMK A01 T00730063  RH  094%=      5-min Rain = 0
KCO1 220859Z 04000KT 07/06 A3013 RMK A01 T00730062  RH  093%=      5-min Rain = 0
KCO1 220900Z 00000KT 07/06 A3013 RMK A01 T00730062  RH  093%=      5-min Rain = 0
KCO1 220901Z 00000KT 07/06 A3013 RMK A01 T00730062  RH  093%=      5-min Rain = 0
KCO1 220902Z 10000KT 07/06 A3013 RMK A01 T00730062  RH  092%=      5-min Rain = 0
KCO1 220903Z 18001KT 07/06 A3013 RMK A01 T00720060  RH  092%=      5-min Rain = 0
KCO1 220904Z 19002KT 07/06 A3013 RMK A01 T00710058  RH  091%=      5-min Rain = 0
KCO1 220905Z 18003KT 07/06 A3013 RMK A01 T00700056  RH  091%=      5-min Rain = 0
KCO1 220906Z 18002KT 07/06 A3013 RMK A01 T00690056  RH  091%=      5-min Rain = 0
KCO1 220907Z 19002KT 07/06 A3013 RMK A01 T00690056  RH  092%=      5-min Rain = 0
KCO1 220908Z 20002KT 07/06 A3013 RMK A01 T00690057  RH  092%=      5-min Rain = 0
KCO1 220909Z 21002KT 07/06 A3013 RMK A01 T00680057  RH  092%=      5-min Rain = 0
KCO1 220910Z 21003KT 07/06 A3013 RMK A01 T00680056  RH  092%=      5-min Rain = 0
KCO1 220911Z 21003KT 07/06 A3013 RMK A01 T00680056  RH  092%=      5-min Rain = 0
KCO1 220912Z 21003KT 07/06 A3013 RMK A01 T00670055  RH  092%=      5-min Rain = 0
KCO1 220913Z 21003KT 07/06 A3013 RMK A01 T00670056  RH  093%=      5-min Rain = 0
KCO1 220914Z 21003KT 07/06 A3013 RMK A01 T00670056  RH  093%=      5-min Rain = 0
KCO1 220915Z 21004KT 07/06 A3013 RMK A01 T00660055  RH  093%=      5-min Rain = 0
KCO1 220916Z 21004KT 07/06 A3013 RMK A01 T00660055  RH  093%=      5-min Rain = 0
KCO1 220917Z 21004KT 07/06 A3013 RMK A01 T00650055  RH  093%=      5-min Rain = 0
KCO1 220918Z 20004KT 07/06 A3013 RMK A01 T00650055  RH  093%=      5-min Rain = 0
KCO1 220919Z 21004KT 07/06 A3013 RMK A01 T00650055  RH  093%=      5-min Rain = 0
KCO1 220920Z 21004KT 07/06 A3013 RMK A01 T00650055  RH  093%=      5-min Rain = 0
KCO1 220921Z 21004KT 06/05 A3013 RMK A01 T00640054  RH  093%=      5-min Rain = 0
KCO1 220922Z 21004KT 06/05 A3013 RMK A01 T00630053  RH  093%=      5-min Rain = 0
KCO1 220923Z 21004KT 06/05 A3013 RMK A01 T00640054  RH  094%=      5-min Rain = 0
KCO1 220924Z 21004KT 06/05 A3013 RMK A01 T00630054  RH  094%=      5-min Rain = 0
KCO1 220925Z 21004KT 06/05 A3013 RMK A01 T00630054  RH  094%=      5-min Rain = 0
KCO1 220926Z 21004KT 06/05 A3013 RMK A01 T00630054  RH  094%=      5-min Rain = 0
KCO1 220927Z 21005KT 06/05 A3013 RMK A01 T00630054  RH  094%=      5-min Rain = 0
KCO1 220928Z 21005KT 06/05 A3013 RMK A01 T00630054  RH  094%=      5-min Rain = 0
KCO1 220929Z 21005KT 06/05 A3013 RMK A01 T00630054  RH  094%=      5-min Rain = 0
KCO1 220930Z 21005KT 06/05 A3013 RMK A01 T00630054  RH  094%=      5-min Rain = 0
KCO1 220931Z 21004KT 06/05 A3013 RMK A01 T00620054  RH  094%=      5-min Rain = 0
KCO1 220932Z 21004KT 06/05 A3013 RMK A01 T00630054  RH  094%=      5-min Rain = 0
KCO1 220933Z 21004KT 06/05 A3013 RMK A01 T00620054  RH  094%=      5-min Rain = 0
KCO1 220934Z 21004KT 06/05 A3013 RMK A01 T00620054  RH  095%=      5-min Rain = 0
KCO1 220935Z 21004KT 06/05 A3013 RMK A01 T00620054  RH  094%=      5-min Rain = 0
KCO1 220936Z 21004KT 06/05 A3013 RMK A01 T00620054  RH  094%=      5-min Rain = 0
KCO1 220937Z 21004KT 06/05 A3013 RMK A01 T00620054  RH  094%=      5-min Rain = 0
KCO1 220938Z 21004KT 06/05 A3013 RMK A01 T00620053  RH  094%=      5-min Rain = 0
KCO1 220939Z 21004KT 06/05 A3013 RMK A01 T00620053  RH  094%=      5-min Rain = 0
KCO1 220940Z 22004KT 06/05 A3013 RMK A01 T00610053  RH  095%=      5-min Rain = 0
KCO1 220941Z 23005KT 06/05 A3013 RMK A01 T00620054  RH  095%=      5-min Rain = 0
KCO1 220942Z 23005KT 06/05 A3013 RMK A01 T00620054  RH  095%=      5-min Rain = 0
KCO1 220943Z 23005KT 06/06 A3013 RMK A01 T00620055  RH  095%=      5-min Rain = 0
KCO1 220944Z 23005KT 06/06 A3013 RMK A01 T00630056  RH  095%=      5-min Rain = 0
KCO1 220945Z 23005KT 06/06 A3013 RMK A01 T00630056  RH  095%=      5-min Rain = 0
KCO1 220946Z 23005KT 07/06 A3013 RMK A01 T00650058  RH  095%=      5-min Rain = 0
KCO1 220947Z 22003KT 07/06 A3013 RMK A01 T00660059  RH  095%=      5-min Rain = 0
KCO1 220948Z 23003KT 07/06 A3013 RMK A01 T00660058  RH  095%=      5-min Rain = 0
KCO1 220949Z 23003KT 07/06 A3013 RMK A01 T00660058  RH  095%=      5-min Rain = 0
KCO1 220950Z 23003KT 07/06 A3013 RMK A01 T00650057  RH  094%=      5-min Rain = 0
KCO1 220951Z 23003KT 07/06 A3013 RMK A01 T00650056  RH  094%=      5-min Rain = 0
KCO1 220952Z 23004KT 06/06 A3013 RMK A01 T00640055  RH  094%=      5-min Rain = 0
KCO1 220953Z 23003KT 06/06 A3013 RMK A01 T00640055  RH  094%=      5-min Rain = 0
KCO1 220954Z 23003KT 06/05 A3013 RMK A01 T00640054  RH  094%=      5-min Rain = 0
KCO1 220955Z 23003KT 06/06 A3013 RMK A01 T00640055  RH  094%=      5-min Rain = 0
KCO1 220956Z 22003KT 06/06 A3013 RMK A01 T00640055  RH  094%=      5-min Rain = 0
KCO1 220957Z 21003KT 06/05 A3013 RMK A01 T00630054  RH  094%=      5-min Rain = 0
KCO1 220958Z 21003KT 06/05 A3013 RMK A01 T00630054  RH  094%=      5-min Rain = 0
KCO1 220959Z 21003KT 06/05 A3013 RMK A01 T00630054  RH  094%=      5-min Rain = 0
KCO1 221000Z 21003KT 06/05 A3013 RMK A01 T00620053  RH  094%=      5-min Rain = 0
KCO1 221001Z 21003KT 06/05 A3013 RMK A01 T00610053  RH  094%=      5-min Rain = 0
KCO1 221002Z 22004KT 06/05 A3013 RMK A01 T00610052  RH  094%=      5-min Rain = 0
KCO1 221003Z 23004KT 06/05 A3013 RMK A01 T00610053  RH  094%=      5-min Rain = 0
KCO1 221004Z 23004KT 06/05 A3013 RMK A01 T00610053  RH  094%=      5-min Rain = 0
KCO1 221005Z 23005KT 06/05 A3013 RMK A01 T00610053  RH  094%=      5-min Rain = 0
KCO1 221006Z 24005KT 06/05 A3013 RMK A01 T00610053  RH  095%=      5-min Rain = 0
KCO1 221007Z 24005KT 06/05 A3013 RMK A01 T00610053  RH  095%=      5-min Rain = 0
KCO1 221008Z 24005KT 06/05 A3013 RMK A01 T00610054  RH  095%=      5-min Rain = 0
KCO1 221009Z 24004KT 06/05 A3013 RMK A01 T00610054  RH  095%=      5-min Rain = 0
KCO1 221010Z 23004KT 06/05 A3013 RMK A01 T00610054  RH  095%=      5-min Rain = 0
KCO1 221011Z 22004KT 06/05 A3013 RMK A01 T00610054  RH  095%=      5-min Rain = 0
KCO1 221012Z 22004KT 06/05 A3013 RMK A01 T00620054  RH  095%=      5-min Rain = 0
KCO1 221013Z 22003KT 06/05 A3013 RMK A01 T00620054  RH  095%=      5-min Rain = 0
KCO1 221014Z 23003KT 06/05 A3013 RMK A01 T00620054  RH  095%=      5-min Rain = 0
KCO1 221015Z 22003KT 06/05 A3013 RMK A01 T00620054  RH  095%=      5-min Rain = 0
KCO1 221016Z 21003KT 06/05 A3013 RMK A01 T00620054  RH  095%=      5-min Rain = 0
KCO1 221017Z 21003KT 06/05 A3013 RMK A01 T00610053  RH  095%=      5-min Rain = 0
KCO1 221018Z 20003KT 06/05 A3013 RMK A01 T00610053  RH  095%=      5-min Rain = 0
KCO1 221019Z 21004KT 06/05 A3013 RMK A01 T00610053  RH  095%=      5-min Rain = 0
KCO1 221020Z 21004KT 06/05 A3013 RMK A01 T00610053  RH  095%=      5-min Rain = 0
KCO1 221021Z 21003KT 06/05 A3013 RMK A01 T00610053  RH  095%=      5-min Rain = 0
KCO1 221022Z 21003KT 06/05 A3013 RMK A01 T00610053  RH  095%=      5-min Rain = 0
KCO1 221023Z 22003KT 06/05 A3013 RMK A01 T00610053  RH  095%=      5-min Rain = 0
KCO1 221024Z 22003KT 06/05 A3013 RMK A01 T00610053  RH  095%=      5-min Rain = 0
KCO1 221025Z 22004KT 06/05 A3013 RMK A01 T00610053  RH  095%=      5-min Rain = 0
KCO1 221026Z 22003KT 06/05 A3013 RMK A01 T00600053  RH  095%=      5-min Rain = 0
KCO1 221027Z 21003KT 06/05 A3013 RMK A01 T00600053  RH  095%=      5-min Rain = 0
KCO1 221028Z 21003KT 06/05 A3013 RMK A01 T00600053  RH  095%=      5-min Rain = 0
KCO1 221029Z 21003KT 06/05 A3013 RMK A01 T00600053  RH  095%=      5-min Rain = 0
KCO1 221030Z 21002KT 06/05 A3013 RMK A01 T00600053  RH  095%=      5-min Rain = 0
KCO1 221031Z 21002KT 06/05 A3013 RMK A01 T00600053  RH  095%=      5-min Rain = 0
KCO1 221032Z 21002KT 06/05 A3013 RMK A01 T00600052  RH  095%=      5-min Rain = 0
KCO1 221033Z 20002KT 06/05 A3013 RMK A01 T00590052  RH  095%=      5-min Rain = 0
KCO1 221034Z 21002KT 06/05 A3013 RMK A01 T00590051  RH  095%=      5-min Rain = 0
KCO1 221035Z 21002KT 06/05 A3013 RMK A01 T00580051  RH  095%=      5-min Rain = 0
KCO1 221036Z 21003KT 06/05 A3013 RMK A01 T00580050  RH  095%=      5-min Rain = 0
KCO1 221037Z 21003KT 06/05 A3013 RMK A01 T00580051  RH  095%=      5-min Rain = 0
KCO1 221038Z 20003KT 06/05 A3013 RMK A01 T00580051  RH  095%=      5-min Rain = 0
KCO1 221039Z 21004KT 06/05 A3013 RMK A01 T00580051  RH  095%=      5-min Rain = 0
KCO1 221040Z 22004KT 06/05 A3013 RMK A01 T00580051  RH  095%=      5-min Rain = 0
KCO1 221041Z 22004KT 06/05 A3013 RMK A01 T00580051  RH  095%=      5-min Rain = 0
KCO1 221042Z 22004KT 06/05 A3013 RMK A01 T00580051  RH  095%=      5-min Rain = 0
KCO1 221043Z 22004KT 06/05 A3013 RMK A01 T00590052  RH  096%=      5-min Rain = 0
KCO1 221044Z 22004KT 06/05 A3013 RMK A01 T00590052  RH  096%=      5-min Rain = 0
KCO1 221045Z 23004KT 06/05 A3013 RMK A01 T00590052  RH  096%=      5-min Rain = 0
KCO1 221046Z 23004KT 06/05 A3013 RMK A01 T00590052  RH  096%=      5-min Rain = 0
KCO1 221047Z 24004KT 06/05 A3013 RMK A01 T00590053  RH  096%=      5-min Rain = 0
KCO1 221048Z 24003KT 06/05 A3013 RMK A01 T00590053  RH  096%=      5-min Rain = 0
KCO1 221049Z 26002KT 06/05 A3013 RMK A01 T00590053  RH  096%=      5-min Rain = 0
KCO1 221050Z 24002KT 06/05 A3013 RMK A01 T00590053  RH  096%=      5-min Rain = 0
KCO1 221051Z 25002KT 06/05 A3013 RMK A01 T00590053  RH  096%=      5-min Rain = 0
KCO1 221052Z 26002KT 06/05 A3013 RMK A01 T00590053  RH  096%=      5-min Rain = 0
KCO1 221053Z 25003KT 06/05 A3013 RMK A01 T00590053  RH  096%=      5-min Rain = 0
KCO1 221054Z 23003KT 06/05 A3013 RMK A01 T00600054  RH  096%=      5-min Rain = 0
KCO1 221055Z 23003KT 06/06 A3013 RMK A01 T00610055  RH  096%=      5-min Rain = 0
KCO1 221056Z 22002KT 06/06 A3013 RMK A01 T00610055  RH  096%=      5-min Rain = 0
KCO1 221057Z 23003KT 06/06 A3013 RMK A01 T00620055  RH  096%=      5-min Rain = 0
KCO1 221058Z 23003KT 06/06 A3013 RMK A01 T00620055  RH  096%=      5-min Rain = 0
KCO1 221059Z 23003KT 06/06 A3013 RMK A01 T00630056  RH  095%=      5-min Rain = 0
KCO1 221100Z 23003KT 06/06 A3013 RMK A01 T00630056  RH  095%=      5-min Rain = 0
KCO1 221101Z 23003KT 06/06 A3013 RMK A01 T00630056  RH  095%=      5-min Rain = 0
KCO1 221102Z 23002KT 06/06 A3013 RMK A01 T00630055  RH  095%=      5-min Rain = 0
KCO1 221103Z 23002KT 06/06 A3013 RMK A01 T00630055  RH  095%=      5-min Rain = 0
KCO1 221104Z 22003KT 06/06 A3013 RMK A01 T00630055  RH  094%=      5-min Rain = 0
KCO1 221105Z 22002KT 06/05 A3013 RMK A01 T00630054  RH  094%=      5-min Rain = 0
KCO1 221106Z 20003KT 06/05 A3013 RMK A01 T00620053  RH  094%=      5-min Rain = 0
KCO1 221107Z 20003KT 06/05 A3013 RMK A01 T00610052  RH  094%=      5-min Rain = 0
KCO1 221108Z 20002KT 06/05 A3013 RMK A01 T00610051  RH  093%=      5-min Rain = 0
KCO1 221109Z 20003KT 06/05 A3013 RMK A01 T00600050  RH  093%=      5-min Rain = 0
KCO1 221110Z 19003KT 06/05 A3012 RMK A01 T00590048  RH  093%=      5-min Rain = 0
KCO1 221111Z 18003KT 06/05 A3012 RMK A01 T00570046  RH  093%=      5-min Rain = 0
KCO1 221112Z 18004KT 06/04 A3012 RMK A01 T00550044  RH  093%=      5-min Rain = 0
KCO1 221113Z 19004KT 05/04 A3012 RMK A01 T00540043  RH  093%=      5-min Rain = 0
KCO1 221114Z 19003KT 05/04 A3012 RMK A01 T00530043  RH  093%=      5-min Rain = 0
KCO1 221115Z 19004KT 05/04 A3012 RMK A01 T00530044  RH  094%=      5-min Rain = 0
KCO1 221116Z 19004KT 05/04 A3012 RMK A01 T00530044  RH  094%=      5-min Rain = 0
KCO1 221117Z 19004KT 05/05 A3012 RMK A01 T00530045  RH  094%=      5-min Rain = 0
KCO1 221118Z 20004KT 05/04 A3012 RMK A01 T00530044  RH  094%=      5-min Rain = 0
KCO1 221119Z 21003KT 05/04 A3012 RMK A01 T00530044  RH  094%=      5-min Rain = 0
KCO1 221120Z 21003KT 05/04 A3012 RMK A01 T00530044  RH  095%=      5-min Rain = 0
KCO1 221121Z 23003KT 05/05 A3012 RMK A01 T00530045  RH  095%=      5-min Rain = 0
KCO1 221122Z 24002KT 05/05 A3012 RMK A01 T00530045  RH  095%=      5-min Rain = 0
KCO1 221123Z 29002KT 05/05 A3012 RMK A01 T00530046  RH  095%=      5-min Rain = 0
KCO1 221124Z 24002KT 05/05 A3012 RMK A01 T00540048  RH  095%=      5-min Rain = 0
KCO1 221125Z 24001KT 06/05 A3012 RMK A01 T00550048  RH  096%=      5-min Rain = 0
KCO1 221126Z 24001KT 06/05 A3012 RMK A01 T00550048  RH  096%=      5-min Rain = 0
KCO1 221127Z 25002KT 06/05 A3012 RMK A01 T00550049  RH  096%=      5-min Rain = 0
KCO1 221128Z 25002KT 06/05 A3012 RMK A01 T00550048  RH  096%=      5-min Rain = 0
KCO1 221129Z 26002KT 06/05 A3013 RMK A01 T00550049  RH  096%=      5-min Rain = 0
KCO1 221130Z 28001KT 06/05 A3013 RMK A01 T00550049  RH  095%=      5-min Rain = 0
KCO1 221131Z 27001KT 06/05 A3013 RMK A01 T00550048  RH  095%=      5-min Rain = 0
KCO1 221132Z 27001KT 06/05 A3013 RMK A01 T00550048  RH  095%=      5-min Rain = 0
KCO1 221133Z 27001KT 06/05 A3013 RMK A01 T00550048  RH  095%=      5-min Rain = 0
KCO1 221134Z 27000KT 06/05 A3013 RMK A01 T00550048  RH  095%=      5-min Rain = 0
KCO1 221135Z 00000KT 05/05 A3013 RMK A01 T00540048  RH  095%=      5-min Rain = 0
KCO1 221136Z 00000KT 05/05 A3013 RMK A01 T00540048  RH  095%=      5-min Rain = 0
KCO1 221137Z 00000KT 05/05 A3013 RMK A01 T00540048  RH  095%=      5-min Rain = 0
KCO1 221138Z 27000KT 05/05 A3013 RMK A01 T00540047  RH  095%=      5-min Rain = 0
KCO1 221139Z 00000KT 05/05 A3013 RMK A01 T00540047  RH  095%=      5-min Rain = 0
KCO1 221140Z 27000KT 05/05 A3013 RMK A01 T00530046  RH  095%=      5-min Rain = 0
KCO1 221141Z 27001KT 05/05 A3013 RMK A01 T00530045  RH  095%=      5-min Rain = 0
KCO1 221142Z 27001KT 05/05 A3013 RMK A01 T00520045  RH  095%=      5-min Rain = 0
KCO1 221143Z 27001KT 05/05 A3013 RMK A01 T00530046  RH  095%=      5-min Rain = 0
KCO1 221144Z 28001KT 05/05 A3013 RMK A01 T00530046  RH  096%=      5-min Rain = 0
KCO1 221145Z 29001KT 05/05 A3013 RMK A01 T00540048  RH  096%=      5-min Rain = 0
KCO1 221146Z 31001KT 06/05 A3013 RMK A01 T00550049  RH  096%=      5-min Rain = 0
KCO1 221147Z 31001KT 06/05 A3013 RMK A01 T00550049  RH  096%=      5-min Rain = 0
KCO1 221148Z 31001KT 06/05 A3013 RMK A01 T00560049  RH  096%=      5-min Rain = 0
KCO1 221149Z 31000KT 06/05 A3013 RMK A01 T00550049  RH  096%=      5-min Rain = 0
KCO1 221150Z 31001KT 06/05 A3013 RMK A01 T00550048  RH  096%=      5-min Rain = 0
KCO1 221151Z 31001KT 05/05 A3013 RMK A01 T00540048  RH  096%=      5-min Rain = 0
KCO1 221152Z 31001KT 05/05 A3013 RMK A01 T00540047  RH  095%=      5-min Rain = 0
KCO1 221153Z 30001KT 05/05 A3013 RMK A01 T00530046  RH  095%=      5-min Rain = 0
KCO1 221154Z 28001KT 05/05 A3013 RMK A01 T00530046  RH  095%=      5-min Rain = 0
KCO1 221155Z 27001KT 05/05 A3013 RMK A01 T00520045  RH  095%=      5-min Rain = 0
KCO1 221156Z 27001KT 05/05 A3013 RMK A01 T00520045  RH  095%=      5-min Rain = 0
KCO1 221157Z 28001KT 05/05 A3013 RMK A01 T00510045  RH  095%=      5-min Rain = 0
KCO1 221158Z 28001KT 05/04 A3013 RMK A01 T00510044  RH  095%=      5-min Rain = 0
KCO1 221159Z 28002KT 05/05 A3013 RMK A01 T00510045  RH  095%=      5-min Rain = 0
KCO1 221200Z 28002KT 05/05 A3013 RMK A01 T00510045  RH  096%=      5-min Rain = 0
KCO1 221201Z 28002KT 05/05 A3013 RMK A01 T00530047  RH  096%=      5-min Rain = 0
KCO1 221202Z 28002KT 05/05 A3013 RMK A01 T00530047  RH  096%=      5-min Rain = 0
KCO1 221203Z 27003KT 05/05 A3013 RMK A01 T00530047  RH  096%=      5-min Rain = 0
KCO1 221204Z 27002KT 05/05 A3013 RMK A01 T00530046  RH  096%=      5-min Rain = 0
KCO1 221205Z 27002KT 05/05 A3013 RMK A01 T00520046  RH  096%=      5-min Rain = 0
KCO1 221206Z 27002KT 05/05 A3013 RMK A01 T00520046  RH  096%=      5-min Rain = 0
KCO1 221207Z 28002KT 05/05 A3013 RMK A01 T00530047  RH  096%=      5-min Rain = 0
KCO1 221208Z 29002KT 05/05 A3014 RMK A01 T00530047  RH  096%=      5-min Rain = 0
KCO1 221209Z 29002KT 05/05 A3014 RMK A01 T00540048  RH  096%=      5-min Rain = 0
KCO1 221210Z 29002KT 05/05 A3014 RMK A01 T00540048  RH  096%=      5-min Rain = 0
KCO1 221211Z 30001KT 05/05 A3014 RMK A01 T00540048  RH  096%=      5-min Rain = 0
KCO1 221212Z 29001KT 05/05 A3014 RMK A01 T00540048  RH  096%=      5-min Rain = 0
KCO1 221213Z 29001KT 05/05 A3014 RMK A01 T00540048  RH  096%=      5-min Rain = 0
KCO1 221214Z 29000KT 05/05 A3014 RMK A01 T00540048  RH  096%=      5-min Rain = 0
KCO1 221215Z 29001KT 05/05 A3014 RMK A01 T00530047  RH  096%=      5-min Rain = 0
KCO1 221216Z 30001KT 05/05 A3014 RMK A01 T00530047  RH  096%=      5-min Rain = 0
KCO1 221217Z 31001KT 05/05 A3014 RMK A01 T00530047  RH  096%=      5-min Rain = 0
KCO1 221218Z 31002KT 05/05 A3014 RMK A01 T00530046  RH  096%=      5-min Rain = 0
KCO1 221219Z 31002KT 05/05 A3014 RMK A01 T00520046  RH  096%=      5-min Rain = 0
KCO1 221220Z 31002KT 05/05 A3014 RMK A01 T00520046  RH  096%=      5-min Rain = 0
KCO1 221221Z 32002KT 05/05 A3014 RMK A01 T00530047  RH  096%=      5-min Rain = 0
KCO1 221222Z 33002KT 05/05 A3014 RMK A01 T00540048  RH  096%=      5-min Rain = 0
KCO1 221223Z 33002KT 05/05 A3014 RMK A01 T00540049  RH  096%=      5-min Rain = 0
KCO1 221224Z 35002KT 05/05 A3014 RMK A01 T00540048  RH  096%=      5-min Rain = 0
KCO1 221225Z 36002KT 05/05 A3014 RMK A01 T00540048  RH  096%=      5-min Rain = 0
KCO1 221226Z 01003KT 05/05 A3014 RMK A01 T00520046  RH  096%=      5-min Rain = 0
KCO1 221227Z 02003KT 05/05 A3014 RMK A01 T00510045  RH  096%=      5-min Rain = 0
KCO1 221228Z 02003KT 05/05 A3014 RMK A01 T00510045  RH  096%=      5-min Rain = 0
KCO1 221229Z 02003KT 05/04 A3014 RMK A01 T00510044  RH  096%=      5-min Rain = 0
KCO1 221230Z 03003KT 05/05 A3014 RMK A01 T00510045  RH  096%=      5-min Rain = 0
KCO1 221231Z 03003KT 05/04 A3014 RMK A01 T00500044  RH  096%=      5-min Rain = 0
KCO1 221232Z 04003KT 05/04 A3014 RMK A01 T00500043  RH  096%=      5-min Rain = 0
KCO1 221233Z 04003KT 05/04 A3014 RMK A01 T00490043  RH  096%=      5-min Rain = 0
KCO1 221234Z 04003KT 05/04 A3014 RMK A01 T00490042  RH  095%=      5-min Rain = 0
KCO1 221235Z 04003KT 05/04 A3014 RMK A01 T00480042  RH  096%=      5-min Rain = 0
KCO1 221236Z 04003KT 05/04 A3014 RMK A01 T00480042  RH  096%=      5-min Rain = 0
KCO1 221237Z 04003KT 05/04 A3014 RMK A01 T00470041  RH  096%=      5-min Rain = 0
KCO1 221238Z 04003KT 05/04 A3014 RMK A01 T00470041  RH  096%=      5-min Rain = 0
KCO1 221239Z 04003KT 05/04 A3014 RMK A01 T00470040  RH  096%=      5-min Rain = 0
KCO1 221240Z 03003KT 05/04 A3014 RMK A01 T00470041  RH  096%=      5-min Rain = 0
KCO1 221241Z 03003KT 05/04 A3014 RMK A01 T00470041  RH  096%=      5-min Rain = 0
KCO1 221242Z 04003KT 05/04 A3014 RMK A01 T00470041  RH  096%=      5-min Rain = 0
KCO1 221243Z 04003KT 05/04 A3014 RMK A01 T00470041  RH  096%=      5-min Rain = 0
KCO1 221244Z 05003KT 05/04 A3014 RMK A01 T00470041  RH  096%=      5-min Rain = 0
KCO1 221245Z 06003KT 05/04 A3014 RMK A01 T00470041  RH  096%=      5-min Rain = 0
KCO1 221246Z 06003KT 05/04 A3014 RMK A01 T00470041  RH  096%=      5-min Rain = 0
KCO1 221247Z 05002KT 05/04 A3014 RMK A01 T00470041  RH  096%=      5-min Rain = 0
KCO1 221248Z 05003KT 05/04 A3014 RMK A01 T00460040  RH  096%=      5-min Rain = 0
KCO1 221249Z 05003KT 05/04 A3014 RMK A01 T00460040  RH  096%=      5-min Rain = 0
KCO1 221250Z 04003KT 05/04 A3014 RMK A01 T00460040  RH  096%=      5-min Rain = 0
KCO1 221251Z 04002KT 05/04 A3014 RMK A01 T00460040  RH  096%=      5-min Rain = 0
KCO1 221252Z 04002KT 05/04 A3014 RMK A01 T00460040  RH  096%=      5-min Rain = 0
KCO1 221253Z 04001KT 05/04 A3014 RMK A01 T00450040  RH  096%=      5-min Rain = 0
KCO1 221254Z 04001KT 05/04 A3014 RMK A01 T00460041  RH  096%=      5-min Rain = 0
KCO1 221255Z 04000KT 05/04 A3014 RMK A01 T00470041  RH  096%=      5-min Rain = 0
KCO1 221256Z 04000KT 05/04 A3014 RMK A01 T00480043  RH  097%=      5-min Rain = 0
KCO1 221257Z 03001KT 05/04 A3014 RMK A01 T00480043  RH  097%=      5-min Rain = 0
KCO1 221258Z 01001KT 05/04 A3014 RMK A01 T00480043  RH  097%=      5-min Rain = 0
KCO1 221259Z 35001KT 05/04 A3014 RMK A01 T00490044  RH  097%=      5-min Rain = 0
KCO1 221300Z 35002KT 05/05 A3014 RMK A01 T00500045  RH  097%=      5-min Rain = 0
KCO1 221301Z 35002KT 05/05 A3014 RMK A01 T00500045  RH  097%=      5-min Rain = 0
KCO1 221302Z 35002KT 05/05 A3015 RMK A01 T00510046  RH  097%=      5-min Rain = 0
KCO1 221303Z 34002KT 05/05 A3015 RMK A01 T00510047  RH  097%=      5-min Rain = 0
KCO1 221304Z 33002KT 05/05 A3015 RMK A01 T00520047  RH  097%=      5-min Rain = 0
KCO1 221305Z 32002KT 05/05 A3015 RMK A01 T00520048  RH  097%=      5-min Rain = 0
KCO1 221306Z 32002KT 05/05 A3015 RMK A01 T00520047  RH  097%=      5-min Rain = 0
KCO1 221307Z 31002KT 05/05 A3015 RMK A01 T00510046  RH  096%=      5-min Rain = 0
KCO1 221308Z 32002KT 05/04 A3015 RMK A01 T00490044  RH  096%=      5-min Rain = 0
KCO1 221309Z 32003KT 05/04 A3015 RMK A01 T00490043  RH  096%=      5-min Rain = 0
KCO1 221310Z 33003KT 05/04 A3015 RMK A01 T00480043  RH  096%=      5-min Rain = 0
KCO1 221311Z 34003KT 05/04 A3015 RMK A01 T00480043  RH  096%=      5-min Rain = 0
KCO1 221312Z 34003KT 05/04 A3015 RMK A01 T00490044  RH  096%=      5-min Rain = 0
KCO1 221313Z 34003KT 05/05 A3015 RMK A01 T00500045  RH  097%=      5-min Rain = 0
KCO1 221314Z 33003KT 05/05 A3016 RMK A01 T00500045  RH  096%=      5-min Rain = 0
KCO1 221315Z 33002KT 05/04 A3016 RMK A01 T00500044  RH  096%=      5-min Rain = 0
KCO1 221316Z 33002KT 05/04 A3016 RMK A01 T00480042  RH  096%=      5-min Rain = 0
KCO1 221317Z 33002KT 05/04 A3016 RMK A01 T00470041  RH  096%=      5-min Rain = 0
KCO1 221318Z 35002KT 05/04 A3016 RMK A01 T00470040  RH  096%=      5-min Rain = 0
KCO1 221319Z 35002KT 05/04 A3016 RMK A01 T00470041  RH  096%=      5-min Rain = 0
KCO1 221320Z 35002KT 05/04 A3016 RMK A01 T00470041  RH  096%=      5-min Rain = 0
KCO1 221321Z 35003KT 05/04 A3016 RMK A01 T00470041  RH  096%=      5-min Rain = 0
KCO1 221322Z 35003KT 05/04 A3016 RMK A01 T00470041  RH  096%=      5-min Rain = 0
KCO1 221323Z 35002KT 05/04 A3016 RMK A01 T00470041  RH  096%=      5-min Rain = 0
KCO1 221324Z 35003KT 05/04 A3016 RMK A01 T00470042  RH  096%=      5-min Rain = 0
KCO1 221325Z 35003KT 05/04 A3016 RMK A01 T00480042  RH  096%=      5-min Rain = 0
KCO1 221326Z 34002KT 05/04 A3015 RMK A01 T00480043  RH  096%=      5-min Rain = 0
KCO1 221327Z 33002KT 05/04 A3015 RMK A01 T00490043  RH  096%=      5-min Rain = 0
KCO1 221328Z 32001KT 05/04 A3015 RMK A01 T00490044  RH  096%=      5-min Rain = 0
KCO1 221329Z 32002KT 05/04 A3015 RMK A01 T00490044  RH  096%=      5-min Rain = 0
KCO1 221330Z 33002KT 05/04 A3015 RMK A01 T00490044  RH  096%=      5-min Rain = 0
KCO1 221331Z 32002KT 05/04 A3015 RMK A01 T00490043  RH  096%=      5-min Rain = 0
KCO1 221332Z 33002KT 05/04 A3015 RMK A01 T00490044  RH  096%=      5-min Rain = 0
KCO1 221333Z 33002KT 05/04 A3016 RMK A01 T00490044  RH  096%=      5-min Rain = 0
KCO1 221334Z 32002KT 05/04 A3016 RMK A01 T00490044  RH  096%=      5-min Rain = 0
KCO1 221335Z 31002KT 05/04 A3016 RMK A01 T00490043  RH  096%=      5-min Rain = 0
KCO1 221336Z 30002KT 05/04 A3016 RMK A01 T00480042  RH  096%=      5-min Rain = 0
KCO1 221337Z 30002KT 05/04 A3016 RMK A01 T00480042  RH  096%=      5-min Rain = 0
KCO1 221338Z 30002KT 05/04 A3016 RMK A01 T00470041  RH  096%=      5-min Rain = 0
KCO1 221339Z 31002KT 05/04 A3016 RMK A01 T00470040  RH  096%=      5-min Rain = 0
KCO1 221340Z 32002KT 05/04 A3016 RMK A01 T00470040  RH  096%=      5-min Rain = 0
KCO1 221341Z 32002KT 05/04 A3016 RMK A01 T00470041  RH  096%=      5-min Rain = 0
KCO1 221342Z 33002KT 05/04 A3016 RMK A01 T00480042  RH  096%=      5-min Rain = 0
KCO1 221343Z 33002KT 05/04 A3016 RMK A01 T00490043  RH  096%=      5-min Rain = 0
KCO1 221344Z 33001KT 05/04 A3016 RMK A01 T00490043  RH  096%=      5-min Rain = 0
KCO1 221345Z 34002KT 05/04 A3016 RMK A01 T00490043  RH  096%=      5-min Rain = 0
KCO1 221346Z 33002KT 05/04 A3016 RMK A01 T00490043  RH  096%=      5-min Rain = 0
KCO1 221347Z 33001KT 05/04 A3016 RMK A01 T00490042  RH  096%=      5-min Rain = 0
KCO1 221348Z 33002KT 05/04 A3016 RMK A01 T00490043  RH  096%=      5-min Rain = 0
KCO1 221349Z 33002KT 05/04 A3016 RMK A01 T00500043  RH  096%=      5-min Rain = 0
KCO1 221350Z 34002KT 05/04 A3016 RMK A01 T00500043  RH  096%=      5-min Rain = 0
KCO1 221351Z 34002KT 05/04 A3016 RMK A01 T00500043  RH  096%=      5-min Rain = 0
KCO1 221352Z 34002KT 05/04 A3016 RMK A01 T00500044  RH  096%=      5-min Rain = 0
KCO1 221353Z 33002KT 05/04 A3016 RMK A01 T00510044  RH  095%=      5-min Rain = 0
KCO1 221354Z 34003KT 05/05 A3016 RMK A01 T00510045  RH  095%=      5-min Rain = 0
KCO1 221355Z 33002KT 05/05 A3016 RMK A01 T00520045  RH  095%=      5-min Rain = 0
KCO1 221356Z 34002KT 05/05 A3017 RMK A01 T00520046  RH  095%=      5-min Rain = 0
KCO1 221357Z 34001KT 05/05 A3017 RMK A01 T00530046  RH  095%=      5-min Rain = 0
KCO1 221358Z 36001KT 05/05 A3017 RMK A01 T00540047  RH  095%=      5-min Rain = 0
KCO1 221359Z 33001KT 06/05 A3017 RMK A01 T00550048  RH  095%=      5-min Rain = 0
KCO1 221400Z 00001KT 06/05 A3017 RMK A01 T00560049  RH  095%=      5-min Rain = 0
KCO1 221401Z 35001KT 06/05 A3017 RMK A01 T00570050  RH  096%=      5-min Rain = 0
KCO1 221402Z 02001KT 06/05 A3017 RMK A01 T00570050  RH  095%=      5-min Rain = 0
KCO1 221403Z 02001KT 06/05 A3017 RMK A01 T00570050  RH  095%=      5-min Rain = 0
KCO1 221404Z 04001KT 06/05 A3017 RMK A01 T00570049  RH  095%=      5-min Rain = 0
KCO1 221405Z 04001KT 06/05 A3017 RMK A01 T00570050  RH  095%=      5-min Rain = 0
KCO1 221406Z 06001KT 06/05 A3017 RMK A01 T00580050  RH  095%=      5-min Rain = 0
KCO1 221407Z 07001KT 06/05 A3017 RMK A01 T00590051  RH  095%=      5-min Rain = 0
KCO1 221408Z 06001KT 06/05 A3017 RMK A01 T00610053  RH  095%=      5-min Rain = 0
KCO1 221409Z 06001KT 06/05 A3017 RMK A01 T00620054  RH  095%=      5-min Rain = 0
KCO1 221410Z 06001KT 06/06 A3017 RMK A01 T00630055  RH  095%=      5-min Rain = 0
KCO1 221411Z 06001KT 06/06 A3017 RMK A01 T00630055  RH  094%=      5-min Rain = 0
KCO1 221412Z 05002KT 06/06 A3017 RMK A01 T00640055  RH  094%=      5-min Rain = 0
KCO1 221413Z 06001KT 06/05 A3017 RMK A01 T00640054  RH  093%=      5-min Rain = 0
KCO1 221414Z 09001KT 07/06 A3017 RMK A01 T00650055  RH  093%=      5-min Rain = 0
KCO1 221415Z 11001KT 07/06 A3017 RMK A01 T00660056  RH  093%=      5-min Rain = 0
KCO1 221416Z 14001KT 07/06 A3018 RMK A01 T00660056  RH  093%=      5-min Rain = 0
KCO1 221417Z 12001KT 07/06 A3018 RMK A01 T00670056  RH  093%=      5-min Rain = 0
KCO1 221418Z 11001KT 07/06 A3018 RMK A01 T00680056  RH  092%=      5-min Rain = 0
KCO1 221419Z 11001KT 07/06 A3018 RMK A01 T00690057  RH  092%=      5-min Rain = 0
KCO1 221420Z 08001KT 07/06 A3018 RMK A01 T00700057  RH  091%=      5-min Rain = 0
KCO1 221421Z 08001KT 07/06 A3018 RMK A01 T00690055  RH  091%=      5-min Rain = 0
KCO1 221422Z 10001KT 07/05 A3018 RMK A01 T00680052  RH  090%=      5-min Rain = 0
KCO1 221423Z 09001KT 07/05 A3018 RMK A01 T00670051  RH  089%=      5-min Rain = 0
KCO1 221424Z 09001KT 07/05 A3017 RMK A01 T00670050  RH  089%=      5-min Rain = 0
KCO1 221425Z 09001KT 07/05 A3017 RMK A01 T00670051  RH  089%=      5-min Rain = 0
KCO1 221426Z 08001KT 07/05 A3017 RMK A01 T00680052  RH  090%=      5-min Rain = 0
KCO1 221427Z 07001KT 07/05 A3017 RMK A01 T00680053  RH  090%=      5-min Rain = 0
KCO1 221428Z 07001KT 07/05 A3018 RMK A01 T00680052  RH  090%=      5-min Rain = 0
KCO1 221429Z 08001KT 07/05 A3018 RMK A01 T00690053  RH  090%=      5-min Rain = 0
KCO1 221430Z 09001KT 07/06 A3018 RMK A01 T00710056  RH  090%=      5-min Rain = 0
KCO1 221431Z 11002KT 07/06 A3018 RMK A01 T00710055  RH  089%=      5-min Rain = 0
KCO1 221432Z 12002KT 07/05 A3018 RMK A01 T00700053  RH  089%=      5-min Rain = 0
KCO1 221433Z 10002KT 07/05 A3018 RMK A01 T00700053  RH  089%=      5-min Rain = 0
KCO1 221434Z 09001KT 07/05 A3018 RMK A01 T00700053  RH  089%=      5-min Rain = 0
KCO1 221435Z 09002KT 07/05 A3018 RMK A01 T00700053  RH  089%=      5-min Rain = 0
KCO1 221436Z 10002KT 07/05 A3018 RMK A01 T00700053  RH  089%=      5-min Rain = 0
KCO1 221437Z 09001KT 07/05 A3018 RMK A01 T00700054  RH  090%=      5-min Rain = 0
KCO1 221438Z 08002KT 07/05 A3018 RMK A01 T00690054  RH  090%=      5-min Rain = 0
KCO1 221439Z 12001KT 07/05 A3018 RMK A01 T00690053  RH  090%=      5-min Rain = 0
KCO1 221440Z 10001KT 07/05 A3018 RMK A01 T00690054  RH  090%=      5-min Rain = 0
KCO1 221441Z 08001KT 07/06 A3018 RMK A01 T00700056  RH  091%=      5-min Rain = 0
KCO1 221442Z 10001KT 07/06 A3018 RMK A01 T00710057  RH  091%=      5-min Rain = 0
KCO1 221443Z 10001KT 07/06 A3018 RMK A01 T00710057  RH  091%=      5-min Rain = 0
KCO1 221444Z 10002KT 07/06 A3018 RMK A01 T00720057  RH  091%=      5-min Rain = 0
KCO1 221445Z 09001KT 07/06 A3019 RMK A01 T00720057  RH  090%=      5-min Rain = 0
KCO1 221446Z 09002KT 07/06 A3019 RMK A01 T00720057  RH  090%=      5-min Rain = 0
KCO1 221447Z 09002KT 07/06 A3019 RMK A01 T00720057  RH  090%=      5-min Rain = 0
KCO1 221448Z 08002KT 07/06 A3019 RMK A01 T00720057  RH  090%=      5-min Rain = 0
KCO1 221449Z 09002KT 07/06 A3019 RMK A01 T00730057  RH  090%=      5-min Rain = 0
KCO1 221450Z 09003KT 07/06 A3019 RMK A01 T00730057  RH  090%=      5-min Rain = 0
KCO1 221451Z 08002KT 08/06 A3019 RMK A01 T00750059  RH  090%=      5-min Rain = 0
KCO1 221452Z 08003KT 08/06 A3019 RMK A01 T00760059  RH  090%=      5-min Rain = 0
KCO1 221453Z 07001KT 08/06 A3019 RMK A01 T00770060  RH  089%=      5-min Rain = 0
KCO1 221454Z 07002KT 08/06 A3019 RMK A01 T00790063  RH  090%=      5-min Rain = 0
KCO1 221455Z 07001KT 08/06 A3019 RMK A01 T00800062  RH  089%=      5-min Rain = 0
KCO1 221456Z 07001KT 08/06 A3019 RMK A01 T00790060  RH  088%=      5-min Rain = 0
KCO1 221457Z 06001KT 08/06 A3019 RMK A01 T00800060  RH  087%=      5-min Rain = 0
KCO1 221458Z 06002KT 08/06 A3019 RMK A01 T00810060  RH  087%=      5-min Rain = 0
KCO1 221459Z 07002KT 08/06 A3019 RMK A01 T00820060  RH  086%=      5-min Rain = 0
KCO1 221500Z 07003KT 08/06 A3019 RMK A01 T00820060  RH  086%=      5-min Rain = 0
KCO1 221501Z 07002KT 08/06 A3019 RMK A01 T00830061  RH  086%=      5-min Rain = 0
KCO1 221502Z 04003KT 08/06 A3019 RMK A01 T00830061  RH  086%=      5-min Rain = 0
KCO1 221503Z 04004KT 08/06 A3019 RMK A01 T00820059  RH  085%=      5-min Rain = 0
KCO1 221504Z 04003KT 08/06 A3019 RMK A01 T00790056  RH  085%=      5-min Rain = 0
KCO1 221505Z 04002KT 08/06 A3019 RMK A01 T00780056  RH  086%=      5-min Rain = 0
KCO1 221506Z 06003KT 08/06 A3019 RMK A01 T00770056  RH  086%=      5-min Rain = 0
KCO1 221507Z 06002KT 08/06 A3019 RMK A01 T00770056  RH  087%=      5-min Rain = 0
KCO1 221508Z 06002KT 08/06 A3019 RMK A01 T00770057  RH  087%=      5-min Rain = 0
KCO1 221509Z 06002KT 08/06 A3019 RMK A01 T00760057  RH  088%=      5-min Rain = 0
KCO1 221510Z 06002KT 08/06 A3019 RMK A01 T00760058  RH  088%=      5-min Rain = 0
KCO1 221511Z 06002KT 08/06 A3019 RMK A01 T00760059  RH  089%=      5-min Rain = 0
KCO1 221512Z 06001KT 08/06 A3019 RMK A01 T00760059  RH  089%=      5-min Rain = 0
KCO1 221513Z 06003KT 08/06 A3019 RMK A01 T00770060  RH  089%=      5-min Rain = 0
KCO1 221514Z 06003KT 08/06 A3019 RMK A01 T00780061  RH  089%=      5-min Rain = 0
KCO1 221515Z 06003KT 08/06 A3019 RMK A01 T00780061  RH  089%=      5-min Rain = 0
KCO1 221516Z 06003KT 08/06 A3019 RMK A01 T00780061  RH  089%=      5-min Rain = 0
KCO1 221517Z 05002KT 08/06 A3019 RMK A01 T00780060  RH  089%=      5-min Rain = 0
KCO1 221518Z 05003KT 08/06 A3019 RMK A01 T00780060  RH  089%=      5-min Rain = 0
KCO1 221519Z 05003KT 08/06 A3019 RMK A01 T00780061  RH  089%=      5-min Rain = 0
KCO1 221520Z 04003KT 08/06 A3019 RMK A01 T00780061  RH  089%=      5-min Rain = 0
KCO1 221521Z 06003KT 08/06 A3019 RMK A01 T00780061  RH  089%=      5-min Rain = 0
KCO1 221522Z 06003KT 08/06 A3019 RMK A01 T00790063  RH  089%=      5-min Rain = 0
KCO1 221523Z 06003KT 08/06 A3019 RMK A01 T00800064  RH  090%=      5-min Rain = 0
KCO1 221524Z 06003KT 08/06 A3019 RMK A01 T00810064  RH  090%=      5-min Rain = 0
KCO1 221525Z 06003KT 08/06 A3019 RMK A01 T00810064  RH  089%=      5-min Rain = 0
KCO1 221526Z 05003KT 08/06 A3019 RMK A01 T00810064  RH  089%=      5-min Rain = 0
KCO1 221527Z 05003KT 08/06 A3019 RMK A01 T00810063  RH  089%=      5-min Rain = 0
KCO1 221528Z 06003KT 08/06 A3019 RMK A01 T00810064  RH  089%=      5-min Rain = 0
KCO1 221529Z 05003KT 08/06 A3019 RMK A01 T00810064  RH  089%=      5-min Rain = 0
KCO1 221530Z 04003KT 08/06 A3019 RMK A01 T00810063  RH  088%=      5-min Rain = 0
KCO1 221531Z 04004KT 08/06 A3019 RMK A01 T00820063  RH  088%=      5-min Rain = 0
KCO1 221532Z 03004KT 08/06 A3019 RMK A01 T00810063  RH  088%=      5-min Rain = 0
KCO1 221533Z 03004KT 08/06 A3019 RMK A01 T00820063  RH  088%=      5-min Rain = 0
KCO1 221534Z 04004KT 08/06 A3019 RMK A01 T00820063  RH  088%=      5-min Rain = 0
KCO1 221535Z 04004KT 08/06 A302 RMK A01 T00820064  RH  088%=      5-min Rain = 0
KCO1 221536Z 04004KT 08/06 A302 RMK A01 T00830064  RH  088%=      5-min Rain = 0
KCO1 221537Z 03005KT 08/06 A302 RMK A01 T00830064  RH  088%=      5-min Rain = 0
KCO1 221538Z 04004KT 08/06 A3019 RMK A01 T00830064  RH  088%=      5-min Rain = 0
KCO1 221539Z 03005KT 08/07 A3019 RMK A01 T00840065  RH  088%=      5-min Rain = 0
KCO1 221540Z 03005KT 08/06 A3019 RMK A01 T00840063  RH  087%=      5-min Rain = 0
KCO1 221541Z 03004KT 08/06 A3019 RMK A01 T00830062  RH  087%=      5-min Rain = 0
KCO1 221542Z 06003KT 08/06 A3019 RMK A01 T00830063  RH  087%=      5-min Rain = 0
KCO1 221543Z 06004KT 09/07 A3019 RMK A01 T00860068  RH  088%=      5-min Rain = 0
KCO1 221544Z 06005KT 09/07 A3019 RMK A01 T00880070  RH  089%=      5-min Rain = 0
KCO1 221545Z 05004KT 09/07 A3019 RMK A01 T00880068  RH  087%=      5-min Rain = 0
KCO1 221546Z 02005KT 09/07 A3019 RMK A01 T00880067  RH  087%=      5-min Rain = 0
KCO1 221547Z 03004KT 09/07 A3019 RMK A01 T00880066  RH  086%=      5-min Rain = 0
KCO1 221548Z 04005KT 09/07 A3019 RMK A01 T00890067  RH  086%=      5-min Rain = 0
KCO1 221549Z 05005KT 09/07 A3019 RMK A01 T00900068  RH  086%=      5-min Rain = 0
KCO1 221550Z 05005KT 09/07 A3019 RMK A01 T00900067  RH  086%=      5-min Rain = 0
KCO1 221551Z 05005KT 09/07 A3019 RMK A01 T00900068  RH  086%=      5-min Rain = 0
KCO1 221552Z 05005KT 09/07 A3019 RMK A01 T00920070  RH  086%=      5-min Rain = 0
KCO1 221553Z 05006KT 09/07 A3019 RMK A01 T00920069  RH  085%=      5-min Rain = 0
KCO1 221554Z 06005KT 09/07 A3019 RMK A01 T00910066  RH  084%=      5-min Rain = 0
KCO1 221555Z 04005KT 09/07 A3019 RMK A01 T00910067  RH  085%=      5-min Rain = 0
KCO1 221556Z 06007KT 09/07 A3019 RMK A01 T00910068  RH  086%=      5-min Rain = 0
KCO1 221557Z 05006KT 09/07 A3019 RMK A01 T00910068  RH  085%=      5-min Rain = 0
KCO1 221558Z 06006KT 09/07 A3019 RMK A01 T00910066  RH  085%=      5-min Rain = 0
KCO1 221559Z 05007KT 09/07 A3019 RMK A01 T00910068  RH  085%=      5-min Rain = 0
KCO1 221600Z 05005KT 09/07 A3019 RMK A01 T00920068  RH  085%=      5-min Rain = 0
KCO1 221601Z 05005KT 09/07 A3019 RMK A01 T00920069  RH  085%=      5-min Rain = 0
KCO1 221602Z 05006KT 09/07 A3019 RMK A01 T00930070  RH  085%=      5-min Rain = 0
KCO1 221603Z 05006KT 09/07 A3019 RMK A01 T00940070  RH  085%=      5-min Rain = 0
KCO1 221604Z 06007KT 09/07 A3019 RMK A01 T00940068  RH  084%=      5-min Rain = 0
KCO1 221605Z 06006KT 09/07 A3019 RMK A01 T00940068  RH  084%=      5-min Rain = 0
KCO1 221606Z 05004KT 10/07 A3019 RMK A01 T00960070  RH  084%=      5-min Rain = 0
KCO1 221607Z 05007KT 10/07 A3019 RMK A01 T00960071  RH  084%=      5-min Rain = 0
KCO1 221608Z 05005KT 10/07 A302 RMK A01 T00970069  RH  083%=      5-min Rain = 0
KCO1 221609Z 06004KT 10/07 A3019 RMK A01 T00970068  RH  082%=      5-min Rain = 0
KCO1 221610Z 05006KT 10/07 A302 RMK A01 T00980069  RH  082%=      5-min Rain = 0
KCO1 221611Z 04007KT 10/07 A302 RMK A01 T00980067  RH  081%=      5-min Rain = 0
KCO1 221612Z 04006KT 10/07 A302 RMK A01 T00960065  RH  081%=      5-min Rain = 0
KCO1 221613Z 04006KT 10/07 A302 RMK A01 T00950065  RH  081%=      5-min Rain = 0
KCO1 221614Z 04007KT 10/07 A302 RMK A01 T00960066  RH  082%=      5-min Rain = 0
KCO1 221615Z 05007KT 10/07 A302 RMK A01 T00970067  RH  082%=      5-min Rain = 0
KCO1 221616Z 05006KT 10/07 A302 RMK A01 T00960065  RH  081%=      5-min Rain = 0
KCO1 221617Z 05005KT 10/06 A302 RMK A01 T00960064  RH  081%=      5-min Rain = 0
KCO1 221618Z 05005KT 10/06 A302 RMK A01 T00960064  RH  080%=      5-min Rain = 0
KCO1 221619Z 07006KT 10/06 A302 RMK A01 T00960064  RH  081%=      5-min Rain = 0
KCO1 221620Z 09006KT 10/07 A302 RMK A01 T00970065  RH  081%=      5-min Rain = 0
KCO1 221621Z 08005KT 10/07 A302 RMK A01 T00980066  RH  080%=      5-min Rain = 0
KCO1 221622Z 06005KT 10/07 A302 RMK A01 T00990067  RH  080%=      5-min Rain = 0
KCO1 221623Z 06007KT 10/07 A3019 RMK A01 T01010069  RH  080%=      5-min Rain = 0
KCO1 221624Z 05007KT 10/07 A3019 RMK A01 T01010067  RH  079%=      5-min Rain = 0
KCO1 221625Z 06007KT 10/07 A3019 RMK A01 T01010065  RH  078%=      5-min Rain = 0
KCO1 221626Z 06005KT 10/07 A3019 RMK A01 T01010065  RH  078%=      5-min Rain = 0
KCO1 221627Z 07008KT 10/07 A3019 RMK A01 T01020066  RH  079%=      5-min Rain = 0
KCO1 221628Z 06006KT 10/07 A302 RMK A01 T01020066  RH  078%=      5-min Rain = 0
KCO1 221629Z 06005KT 10/07 A302 RMK A01 T01020066  RH  078%=      5-min Rain = 0
KCO1 221630Z 06005KT 10/07 A302 RMK A01 T01020066  RH  078%=      5-min Rain = 0
KCO1 221631Z 05005KT 10/07 A302 RMK A01 T01020065  RH  078%=      5-min Rain = 0
KCO1 221632Z 05006KT 10/07 A302 RMK A01 T01020066  RH  078%=      5-min Rain = 0
KCO1 221633Z 06006KT 10/07 A302 RMK A01 T01020065  RH  078%=      5-min Rain = 0
KCO1 221634Z 07006KT 10/07 A3019 RMK A01 T01020067  RH  079%=      5-min Rain = 0
KCO1 221635Z 07005KT 10/07 A3019 RMK A01 T01020066  RH  078%=      5-min Rain = 0
KCO1 221636Z 06004KT 10/07 A3019 RMK A01 T01020065  RH  078%=      5-min Rain = 0
KCO1 221637Z 06005KT 10/07 A3019 RMK A01 T01020065  RH  078%=      5-min Rain = 0
KCO1 221638Z 05006KT 10/07 A3019 RMK A01 T01020066  RH  078%=      5-min Rain = 0
KCO1 221639Z 04005KT 10/07 A3019 RMK A01 T01030066  RH  078%=      5-min Rain = 0
KCO1 221640Z 05006KT 10/06 A3019 RMK A01 T01030064  RH  077%=      5-min Rain = 0
KCO1 221641Z 05006KT 10/06 A3019 RMK A01 T01020064  RH  077%=      5-min Rain = 0
KCO1 221642Z 04006KT 10/06 A3019 RMK A01 T01010064  RH  077%=      5-min Rain = 0
KCO1 221643Z 04006KT 10/06 A3019 RMK A01 T01010064  RH  078%=      5-min Rain = 0
KCO1 221644Z 05005KT 10/07 A3019 RMK A01 T01010065  RH  078%=      5-min Rain = 0
KCO1 221645Z 06003KT 10/07 A3019 RMK A01 T01010065  RH  078%=      5-min Rain = 0
KCO1 221646Z 05005KT 10/07 A3019 RMK A01 T01020066  RH  078%=      5-min Rain = 0
KCO1 221647Z 05005KT 10/07 A3019 RMK A01 T01030065  RH  077%=      5-min Rain = 0
KCO1 221648Z 06004KT 10/06 A3019 RMK A01 T01030064  RH  077%=      5-min Rain = 0
KCO1 221649Z 04004KT 10/06 A3019 RMK A01 T01030064  RH  077%=      5-min Rain = 0
KCO1 221650Z 01003KT 10/06 A3019 RMK A01 T01040064  RH  076%=      5-min Rain = 0
KCO1 221651Z 00003KT 11/06 A3019 RMK A01 T01050064  RH  076%=      5-min Rain = 0
KCO1 221652Z 02003KT 10/06 A3019 RMK A01 T01040064  RH  076%=      5-min Rain = 0
KCO1 221653Z 07004KT 10/07 A3019 RMK A01 T01040065  RH  077%=      5-min Rain = 0
KCO1 221654Z 08004KT 11/07 A3019 RMK A01 T01050067  RH  077%=      5-min Rain = 0
KCO1 221655Z 07004KT 11/06 A3019 RMK A01 T01050063  RH  075%=      5-min Rain = 0
KCO1 221656Z 04005KT 10/06 A3019 RMK A01 T01040064  RH  076%=      5-min Rain = 0
KCO1 221657Z 06004KT 10/06 A3019 RMK A01 T01040063  RH  076%=      5-min Rain = 0
KCO1 221658Z 05004KT 11/07 A3019 RMK A01 T01050065  RH  076%=      5-min Rain = 0
KCO1 221659Z 10004KT 11/07 A3019 RMK A01 T01060066  RH  076%=      5-min Rain = 0
KCO1 221700Z 10004KT 11/06 A3019 RMK A01 T01070064  RH  075%=      5-min Rain = 0
KCO1 221701Z 09003KT 11/06 A3019 RMK A01 T01080064  RH  074%=      5-min Rain = 0
KCO1 221702Z 09005KT 11/07 A3019 RMK A01 T01110068  RH  075%=      5-min Rain = 0
KCO1 221703Z 10005KT 11/07 A3019 RMK A01 T01140069  RH  074%=      5-min Rain = 0
KCO1 221704Z 11004KT 12/07 A3019 RMK A01 T01160069  RH  073%=      5-min Rain = 0
KCO1 221705Z 09004KT 12/07 A3019 RMK A01 T01180069  RH  072%=      5-min Rain = 0
KCO1 221706Z 05004KT 12/07 A3019 RMK A01 T01200069  RH  071%=      5-min Rain = 0
KCO1 221707Z 06004KT 12/06 A3019 RMK A01 T01180064  RH  069%=      5-min Rain = 0
KCO1 221708Z 09005KT 12/06 A3019 RMK A01 T01150063  RH  070%=      5-min Rain = 0
KCO1 221709Z 10004KT 11/06 A3019 RMK A01 T01140063  RH  071%=      5-min Rain = 0
KCO1 221710Z 08003KT 12/06 A3019 RMK A01 T01150064  RH  071%=      5-min Rain = 0
KCO1 221711Z 06006KT 12/07 A3019 RMK A01 T01160065  RH  071%=      5-min Rain = 0
KCO1 221712Z 07005KT 12/07 A3019 RMK A01 T01180067  RH  071%=      5-min Rain = 0
KCO1 221713Z 08002KT 12/07 A3019 RMK A01 T01210067  RH  070%=      5-min Rain = 0
KCO1 221714Z 10003KT 12/07 A3019 RMK A01 T01210065  RH  068%=      5-min Rain = 0
KCO1 221715Z 08005KT 12/06 A3019 RMK A01 T01200063  RH  068%=      5-min Rain = 0
KCO1 221716Z 08006KT 12/06 A3019 RMK A01 T01190064  RH  069%=      5-min Rain = 0
KCO1 221717Z 09004KT 12/06 A3018 RMK A01 T01180064  RH  069%=      5-min Rain = 0
KCO1 221718Z 07004KT 12/07 A3018 RMK A01 T01190065  RH  070%=      5-min Rain = 0
KCO1 221719Z 06003KT 12/06 A3018 RMK A01 T01200064  RH  069%=      5-min Rain = 0
KCO1 221720Z 04002KT 12/06 A3018 RMK A01 T01180062  RH  068%=      5-min Rain = 0
KCO1 221721Z 05002KT 12/06 A3018 RMK A01 T01160061  RH  069%=      5-min Rain = 0
KCO1 221722Z 05002KT 12/06 A3018 RMK A01 T01160064  RH  070%=      5-min Rain = 0
KCO1 221723Z 08004KT 12/07 A3018 RMK A01 T01180065  RH  070%=      5-min Rain = 0
KCO1 221724Z 08004KT 12/06 A3018 RMK A01 T01180063  RH  069%=      5-min Rain = 0
KCO1 221725Z 08004KT 12/06 A3018 RMK A01 T01170061  RH  068%=      5-min Rain = 0
KCO1 221726Z 09002KT 12/06 A3018 RMK A01 T01150061  RH  069%=      5-min Rain = 0
KCO1 221727Z 06000KT 11/06 A3018 RMK A01 T01140061  RH  070%=      5-min Rain = 0
KCO1 221728Z 07002KT 12/06 A3018 RMK A01 T01160064  RH  071%=      5-min Rain = 0
KCO1 221729Z 09004KT 12/06 A3018 RMK A01 T01170064  RH  070%=      5-min Rain = 0
KCO1 221730Z 09004KT 12/07 A3018 RMK A01 T01200067  RH  070%=      5-min Rain = 0
KCO1 221731Z 10005KT 12/07 A3018 RMK A01 T01230068  RH  069%=      5-min Rain = 0
KCO1 221732Z 10004KT 12/07 A3018 RMK A01 T01240065  RH  067%=      5-min Rain = 0
KCO1 221733Z 02003KT 12/07 A3018 RMK A01 T01240067  RH  068%=      5-min Rain = 0
KCO1 221734Z 07002KT 12/07 A3018 RMK A01 T01240069  RH  069%=      5-min Rain = 0
KCO1 221735Z 11002KT 12/07 A3018 RMK A01 T01240065  RH  067%=      5-min Rain = 0
KCO1 221736Z 09002KT 12/07 A3018 RMK A01 T01240065  RH  067%=      5-min Rain = 0
KCO1 221737Z 06003KT 13/07 A3018 RMK A01 T01250065  RH  067%=      5-min Rain = 0
KCO1 221738Z 06004KT 12/06 A3018 RMK A01 T01240064  RH  067%=      5-min Rain = 0
KCO1 221739Z 07002KT 12/06 A3017 RMK A01 T01220061  RH  066%=      5-min Rain = 0
KCO1 221740Z 05002KT 12/06 A3017 RMK A01 T01210063  RH  067%=      5-min Rain = 0
KCO1 221741Z 07003KT 12/06 A3017 RMK A01 T01220063  RH  067%=      5-min Rain = 0
KCO1 221742Z 05001KT 12/06 A3017 RMK A01 T01210062  RH  067%=      5-min Rain = 0
KCO1 221743Z 07002KT 12/06 A3017 RMK A01 T01210063  RH  067%=      5-min Rain = 0
KCO1 221744Z 04001KT 12/07 A3017 RMK A01 T01230065  RH  067%=      5-min Rain = 0
KCO1 221745Z 06001KT 12/06 A3017 RMK A01 T01220062  RH  066%=      5-min Rain = 0
KCO1 221746Z 09003KT 12/06 A3017 RMK A01 T01220063  RH  067%=      5-min Rain = 0
KCO1 221747Z 08003KT 12/07 A3017 RMK A01 T01230067  RH  069%=      5-min Rain = 0
KCO1 221748Z 09004KT 13/07 A3017 RMK A01 T01260068  RH  068%=      5-min Rain = 0
KCO1 221749Z 08006KT 13/07 A3017 RMK A01 T01290070  RH  067%=      5-min Rain = 0
KCO1 221750Z 09006KT 13/07 A3017 RMK A01 T01310069  RH  066%=      5-min Rain = 0
KCO1 221751Z 09004KT 13/07 A3017 RMK A01 T01310066  RH  065%=      5-min Rain = 0
KCO1 221752Z 11005KT 13/07 A3017 RMK A01 T01290065  RH  065%=      5-min Rain = 0
KCO1 221753Z 10005KT 13/06 A3017 RMK A01 T01280064  RH  065%=      5-min Rain = 0
KCO1 221754Z 10005KT 13/07 A3017 RMK A01 T01280066  RH  066%=      5-min Rain = 0
KCO1 221755Z 11005KT 13/07 A3017 RMK A01 T01290066  RH  065%=      5-min Rain = 0
KCO1 221756Z 13004KT 13/06 A3017 RMK A01 T01290064  RH  065%=      5-min Rain = 0
KCO1 221757Z 12003KT 13/06 A3017 RMK A01 T01280064  RH  065%=      5-min Rain = 0
KCO1 221758Z 06004KT 13/07 A3017 RMK A01 T01280067  RH  066%=      5-min Rain = 0
KCO1 221759Z 04005KT 13/07 A3017 RMK A01 T01290067  RH  066%=      5-min Rain = 0
KCO1 221800Z 05005KT 13/07 A3017 RMK A01 T01280068  RH  067%=      5-min Rain = 0
KCO1 221801Z 09004KT 13/07 A3016 RMK A01 T01280069  RH  068%=      5-min Rain = 0
KCO1 221802Z 08004KT 13/07 A3016 RMK A01 T01280068  RH  067%=      5-min Rain = 0
KCO1 221803Z 07004KT 13/07 A3016 RMK A01 T01280066  RH  066%=      5-min Rain = 0
KCO1 221804Z 09004KT 13/07 A3016 RMK A01 T01280069  RH  067%=      5-min Rain = 0
KCO1 221805Z 09003KT 13/07 A3016 RMK A01 T01300068  RH  066%=      5-min Rain = 0
KCO1 221806Z 10003KT 13/07 A3016 RMK A01 T01300066  RH  065%=      5-min Rain = 0
KCO1 221807Z 06003KT 13/07 A3016 RMK A01 T01290067  RH  066%=      5-min Rain = 0
KCO1 221808Z 03004KT 13/07 A3016 RMK A01 T01280066  RH  066%=      5-min Rain = 0
KCO1 221809Z 03004KT 13/06 A3016 RMK A01 T01250064  RH  066%=      5-min Rain = 0
KCO1 221810Z 03003KT 12/06 A3016 RMK A01 T01220063  RH  067%=      5-min Rain = 0
KCO1 221811Z 04003KT 12/06 A3016 RMK A01 T01210064  RH  068%=      5-min Rain = 0
KCO1 221812Z 03003KT 12/07 A3016 RMK A01 T01210068  RH  070%=      5-min Rain = 0
KCO1 221813Z 01004KT 12/07 A3016 RMK A01 T01220066  RH  069%=      5-min Rain = 0
KCO1 221814Z 02003KT 12/06 A3015 RMK A01 T01200064  RH  068%=      5-min Rain = 0
KCO1 221815Z 03002KT 12/07 A3015 RMK A01 T01210067  RH  070%=      5-min Rain = 0
KCO1 221816Z 07002KT 12/07 A3015 RMK A01 T01240072  RH  071%=      5-min Rain = 0
KCO1 221817Z 11002KT 13/07 A3015 RMK A01 T01280072  RH  068%=      5-min Rain = 0
KCO1 221818Z 12002KT 13/07 A3015 RMK A01 T01290067  RH  066%=      5-min Rain = 0
KCO1 221819Z 09003KT 13/07 A3015 RMK A01 T01300065  RH  065%=      5-min Rain = 0
KCO1 221820Z 05004KT 13/07 A3015 RMK A01 T01300067  RH  066%=      5-min Rain = 0
KCO1 221821Z 05004KT 13/07 A3015 RMK A01 T01320069  RH  066%=      5-min Rain = 0
KCO1 221822Z 04004KT 13/07 A3015 RMK A01 T01320067  RH  065%=      5-min Rain = 0
KCO1 221823Z 07004KT 13/07 A3015 RMK A01 T01300066  RH  065%=      5-min Rain = 0
KCO1 221824Z 07004KT 13/07 A3015 RMK A01 T01280065  RH  065%=      5-min Rain = 0
KCO1 221825Z 07004KT 13/06 A3015 RMK A01 T01270064  RH  066%=      5-min Rain = 0
KCO1 221826Z 08004KT 13/07 A3015 RMK A01 T01270065  RH  066%=      5-min Rain = 0
KCO1 221827Z 09002KT 13/07 A3015 RMK A01 T01280065  RH  065%=      5-min Rain = 0
KCO1 221828Z 08002KT 13/06 A3015 RMK A01 T01280064  RH  065%=      5-min Rain = 0
KCO1 221829Z 07001KT 13/06 A3015 RMK A01 T01270062  RH  065%=      5-min Rain = 0
KCO1 221830Z 20001KT 13/06 A3014 RMK A01 T01250060  RH  065%=      5-min Rain = 0
KCO1 221831Z 22000KT 12/06 A3014 RMK A01 T01240061  RH  065%=      5-min Rain = 0
KCO1 221832Z 15001KT 13/06 A3014 RMK A01 T01250063  RH  066%=      5-min Rain = 0
KCO1 221833Z 16001KT 13/07 A3014 RMK A01 T01280065  RH  065%=      5-min Rain = 0
KCO1 221834Z 12001KT 13/07 A3014 RMK A01 T01310066  RH  065%=      5-min Rain = 0
KCO1 221835Z 16002KT 13/07 A3014 RMK A01 T01330066  RH  064%=      5-min Rain = 0
KCO1 221836Z 19003KT 13/07 A3014 RMK A01 T01340066  RH  063%=      5-min Rain = 0
KCO1 221837Z 22002KT 14/07 A3014 RMK A01 T01350065  RH  062%=      5-min Rain = 0
KCO1 221838Z 21002KT 14/07 A3014 RMK A01 T01360065  RH  062%=      5-min Rain = 0
KCO1 221839Z 22001KT 14/07 A3013 RMK A01 T01350066  RH  063%=      5-min Rain = 0
KCO1 221840Z 12002KT 14/07 A3013 RMK A01 T01350069  RH  064%=      5-min Rain = 0
KCO1 221841Z 12005KT 14/07 A3013 RMK A01 T01360068  RH  063%=      5-min Rain = 0
KCO1 221842Z 13005KT 14/07 A3013 RMK A01 T01360068  RH  063%=      5-min Rain = 0
KCO1 221843Z 14005KT 14/07 A3013 RMK A01 T01350066  RH  063%=      5-min Rain = 0
KCO1 221844Z 12005KT 13/06 A3013 RMK A01 T01320064  RH  063%=      5-min Rain = 0
KCO1 221845Z 13005KT 13/07 A3013 RMK A01 T01300066  RH  065%=      5-min Rain = 0
KCO1 221846Z 12004KT 13/07 A3013 RMK A01 T01300065  RH  065%=      5-min Rain = 0
KCO1 221847Z 10004KT 13/07 A3013 RMK A01 T01290065  RH  065%=      5-min Rain = 0
KCO1 221848Z 11006KT 13/07 A3013 RMK A01 T01290066  RH  066%=      5-min Rain = 0
KCO1 221849Z 11005KT 13/07 A3013 RMK A01 T01280065  RH  065%=      5-min Rain = 0
KCO1 221850Z 11005KT 13/06 A3013 RMK A01 T01280064  RH  065%=      5-min Rain = 0
KCO1 221851Z 12005KT 13/06 A3013 RMK A01 T01270063  RH  065%=      5-min Rain = 0
KCO1 221852Z 12005KT 13/06 A3013 RMK A01 T01260064  RH  066%=      5-min Rain = 0
KCO1 221853Z 11002KT 13/06 A3013 RMK A01 T01280064  RH  065%=      5-min Rain = 0
KCO1 221854Z 13002KT 13/06 A3012 RMK A01 T01290064  RH  064%=      5-min Rain = 0
KCO1 221855Z 12002KT 13/07 A3012 RMK A01 T01320067  RH  065%=      5-min Rain = 0
KCO1 221856Z 10004KT 14/07 A3012 RMK A01 T01350067  RH  063%=      5-min Rain = 0
KCO1 221857Z 10004KT 14/07 A3012 RMK A01 T01360065  RH  062%=      5-min Rain = 0
KCO1 221858Z 08003KT 14/07 A3012 RMK A01 T01360066  RH  062%=      5-min Rain = 0
KCO1 221859Z 08003KT 14/07 A3012 RMK A01 T01380066  RH  062%=      5-min Rain = 0
KCO1 221900Z 10003KT 14/06 A3012 RMK A01 T01390064  RH  061%=      5-min Rain = 0
KCO1 221901Z 10004KT 14/07 A3012 RMK A01 T01390065  RH  061%=      5-min Rain = 0
KCO1 221902Z 13005KT 14/07 A3012 RMK A01 T01400066  RH  061%=      5-min Rain = 0
KCO1 221903Z 10003KT 14/06 A3012 RMK A01 T01410064  RH  060%=      5-min Rain = 0
KCO1 221904Z 07004KT 14/07 A3012 RMK A01 T01400065  RH  060%=      5-min Rain = 0
KCO1 221905Z 06003KT 14/07 A3012 RMK A01 T01410065  RH  061%=      5-min Rain = 0
KCO1 221906Z 03002KT 14/07 A3012 RMK A01 T01410065  RH  060%=      5-min Rain = 0
KCO1 221907Z 03001KT 14/06 A3012 RMK A01 T01380063  RH  060%=      5-min Rain = 0
KCO1 221908Z 12002KT 14/07 A3012 RMK A01 T01380066  RH  062%=      5-min Rain = 0
KCO1 221909Z 17001KT 14/06 A3012 RMK A01 T01400064  RH  060%=      5-min Rain = 0
KCO1 221910Z 17002KT 14/06 A3012 RMK A01 T01390064  RH  060%=      5-min Rain = 0
KCO1 221911Z 16001KT 14/07 A3012 RMK A01 T01410067  RH  061%=      5-min Rain = 0
KCO1 221912Z 11002KT 14/06 A3012 RMK A01 T01410064  RH  060%=      5-min Rain = 0
KCO1 221913Z 10002KT 14/06 A3012 RMK A01 T01410064  RH  060%=      5-min Rain = 0
KCO1 221914Z 12004KT 14/07 A3012 RMK A01 T01420065  RH  060%=      5-min Rain = 0
KCO1 221915Z 11003KT 14/07 A3012 RMK A01 T01430066  RH  060%=      5-min Rain = 0
KCO1 221916Z 09001KT 14/06 A3012 RMK A01 T01440064  RH  059%=      5-min Rain = 0
KCO1 221917Z 05001KT 14/06 A3011 RMK A01 T01440063  RH  058%=      5-min Rain = 0
KCO1 221918Z 12001KT 14/06 A3011 RMK A01 T01430064  RH  059%=      5-min Rain = 0
KCO1 221919Z 13003KT 14/07 A3011 RMK A01 T01440065  RH  059%=      5-min Rain = 0
KCO1 221920Z 15002KT 14/07 A3011 RMK A01 T01440065  RH  059%=      5-min Rain = 0
KCO1 221921Z 14001KT 14/06 A3011 RMK A01 T01440062  RH  058%=      5-min Rain = 0
KCO1 221922Z 10000KT 14/06 A3011 RMK A01 T01420062  RH  059%=      5-min Rain = 0
KCO1 221923Z 08002KT 14/06 A3011 RMK A01 T01420064  RH  059%=      5-min Rain = 0
KCO1 221924Z 08005KT 14/07 A3011 RMK A01 T01430066  RH  060%=      5-min Rain = 0
KCO1 221925Z 07003KT 14/07 A3011 RMK A01 T01440066  RH  060%=      5-min Rain = 0
KCO1 221926Z 06002KT 14/07 A3011 RMK A01 T01440067  RH  059%=      5-min Rain = 0
KCO1 221927Z 11004KT 14/07 A3011 RMK A01 T01440066  RH  059%=      5-min Rain = 0
KCO1 221928Z 09004KT 14/07 A301 RMK A01 T01440066  RH  059%=      5-min Rain = 0
KCO1 221929Z 12004KT 15/07 A301 RMK A01 T01470071  RH  060%=      5-min Rain = 0
KCO1 221930Z 09004KT 15/07 A301 RMK A01 T01490069  RH  059%=      5-min Rain = 0
KCO1 221931Z 12004KT 15/07 A301 RMK A01 T01500069  RH  058%=      5-min Rain = 0
KCO1 221932Z 12003KT 15/07 A301 RMK A01 T01490066  RH  057%=      5-min Rain = 0
KCO1 221933Z 11003KT 15/07 A301 RMK A01 T01490066  RH  058%=      5-min Rain = 0
KCO1 221934Z 14003KT 15/07 A301 RMK A01 T01490067  RH  058%=      5-min Rain = 0
KCO1 221935Z 16003KT 15/07 A301 RMK A01 T01500065  RH  057%=      5-min Rain = 0
KCO1 221936Z 17003KT 15/07 A301 RMK A01 T01500066  RH  057%=      5-min Rain = 0
KCO1 221937Z 18004KT 15/07 A301 RMK A01 T01490065  RH  057%=      5-min Rain = 0
KCO1 221938Z 19004KT 15/06 A301 RMK A01 T01470063  RH  057%=      5-min Rain = 0
KCO1 221939Z 20004KT 15/06 A301 RMK A01 T01460062  RH  057%=      5-min Rain = 0
KCO1 221940Z 20003KT 14/06 A301 RMK A01 T01440062  RH  058%=      5-min Rain = 0
KCO1 221941Z 18002KT 14/06 A301 RMK A01 T01430063  RH  058%=      5-min Rain = 0
KCO1 221942Z 18002KT 15/06 A3009 RMK A01 T01450064  RH  058%=      5-min Rain = 0
KCO1 221943Z 14003KT 15/07 A3009 RMK A01 T01470065  RH  058%=      5-min Rain = 0
KCO1 221944Z 12004KT 15/06 A3009 RMK A01 T01490064  RH  057%=      5-min Rain = 0
KCO1 221945Z 07003KT 15/06 A3009 RMK A01 T01490063  RH  056%=      5-min Rain = 0
KCO1 221946Z 06003KT 15/06 A3009 RMK A01 T01470061  RH  056%=      5-min Rain = 0
KCO1 221947Z 08004KT 15/06 A3009 RMK A01 T01460063  RH  058%=      5-min Rain = 0
KCO1 221948Z 09003KT 15/06 A3009 RMK A01 T01460062  RH  057%=      5-min Rain = 0
KCO1 221949Z 11003KT 15/06 A3009 RMK A01 T01460061  RH  057%=      5-min Rain = 0
KCO1 221950Z 12003KT 15/06 A3009 RMK A01 T01450061  RH  057%=      5-min Rain = 0
KCO1 221951Z 09004KT 15/06 A3009 RMK A01 T01450062  RH  057%=      5-min Rain = 0
KCO1 221952Z 09002KT 15/06 A3009 RMK A01 T01460060  RH  056%=      5-min Rain = 0
KCO1 221953Z 18001KT 15/06 A3009 RMK A01 T01450058  RH  056%=      5-min Rain = 0
KCO1 221954Z 06002KT 15/06 A3009 RMK A01 T01450059  RH  057%=      5-min Rain = 0
KCO1 221955Z 07001KT 15/06 A3009 RMK A01 T01450059  RH  056%=      5-min Rain = 0
KCO1 221956Z 02001KT 14/06 A3009 RMK A01 T01440060  RH  057%=      5-min Rain = 0
KCO1 221957Z 10002KT 14/06 A3009 RMK A01 T01430059  RH  057%=      5-min Rain = 0
KCO1 221958Z 09003KT 14/06 A3009 RMK A01 T01430061  RH  058%=      5-min Rain = 0
KCO1 221959Z 09001KT 14/06 A3009 RMK A01 T01440060  RH  057%=      5-min Rain = 0
KCO1 222000Z 03001KT 15/06 A3009 RMK A01 T01450061  RH  057%=      5-min Rain = 0
KCO1 222001Z 23000KT 15/06 A3009 RMK A01 T01450061  RH  057%=      5-min Rain = 0
KCO1 222002Z 20001KT 15/06 A3009 RMK A01 T01470061  RH  056%=      5-min Rain = 0
KCO1 222003Z 27001KT 15/06 A3009 RMK A01 T01470062  RH  057%=      5-min Rain = 0
KCO1 222004Z 27000KT 15/07 A3009 RMK A01 T01480065  RH  057%=      5-min Rain = 0
KCO1 222005Z 25001KT 15/07 A3009 RMK A01 T01500065  RH  057%=      5-min Rain = 0
KCO1 222006Z 24001KT 15/06 A3009 RMK A01 T01500062  RH  055%=      5-min Rain = 0
KCO1 222007Z 26000KT 15/06 A3008 RMK A01 T01500063  RH  056%=      5-min Rain = 0
KCO1 222008Z 15001KT 15/06 A3008 RMK A01 T01500062  RH  056%=      5-min Rain = 0
KCO1 222009Z 13002KT 15/07 A3008 RMK A01 T01510065  RH  056%=      5-min Rain = 0
KCO1 222010Z 19001KT 15/07 A3008 RMK A01 T01540066  RH  056%=      5-min Rain = 0
KCO1 222011Z 21001KT 16/07 A3008 RMK A01 T01560066  RH  055%=      5-min Rain = 0
KCO1 222012Z 24001KT 16/06 A3008 RMK A01 T01570064  RH  054%=      5-min Rain = 0
KCO1 222013Z 22004KT 16/07 A3008 RMK A01 T01580067  RH  055%=      5-min Rain = 0
KCO1 222014Z 21004KT 16/06 A3008 RMK A01 T01580064  RH  053%=      5-min Rain = 0
KCO1 222015Z 21002KT 16/06 A3008 RMK A01 T01550062  RH  054%=      5-min Rain = 0
KCO1 222016Z 21003KT 15/07 A3008 RMK A01 T01540065  RH  055%=      5-min Rain = 0
KCO1 222017Z 21001KT 15/06 A3008 RMK A01 T01540062  RH  054%=      5-min Rain = 0
KCO1 222018Z 19000KT 16/06 A3008 RMK A01 T01550063  RH  055%=      5-min Rain = 0
KCO1 222019Z 20001KT 16/07 A3008 RMK A01 T01570065  RH  054%=      5-min Rain = 0
KCO1 222020Z 08001KT 16/06 A3008 RMK A01 T01580063  RH  053%=      5-min Rain = 0
KCO1 222021Z 07004KT 16/07 A3008 RMK A01 T01580065  RH  054%=      5-min Rain = 0
KCO1 222022Z 09005KT 16/07 A3008 RMK A01 T01570065  RH  054%=      5-min Rain = 0
KCO1 222023Z 10006KT 16/07 A3008 RMK A01 T01570066  RH  055%=      5-min Rain = 0
KCO1 222024Z 11004KT 16/06 A3008 RMK A01 T01550062  RH  054%=      5-min Rain = 0
KCO1 222025Z 09003KT 15/06 A3008 RMK A01 T01520061  RH  055%=      5-min Rain = 0
KCO1 222026Z 06003KT 15/06 A3008 RMK A01 T01520062  RH  055%=      5-min Rain = 0
KCO1 222027Z 05003KT 15/06 A3008 RMK A01 T01500060  RH  055%=      5-min Rain = 0
KCO1 222028Z 09002KT 15/06 A3007 RMK A01 T01480059  RH  056%=      5-min Rain = 0
KCO1 222029Z 34001KT 15/06 A3008 RMK A01 T01470061  RH  056%=      5-min Rain = 0
KCO1 222030Z 36001KT 15/06 A3008 RMK A01 T01490063  RH  056%=      5-min Rain = 0
KCO1 222031Z 03003KT 15/07 A3008 RMK A01 T01500066  RH  057%=      5-min Rain = 0
KCO1 222032Z 10003KT 15/07 A3007 RMK A01 T01520067  RH  057%=      5-min Rain = 0
KCO1 222033Z 10002KT 15/07 A3007 RMK A01 T01530065  RH  055%=      5-min Rain = 0
KCO1 222034Z 10003KT 15/06 A3007 RMK A01 T01540064  RH  055%=      5-min Rain = 0
KCO1 222035Z 10005KT 16/07 A3007 RMK A01 T01560065  RH  055%=      5-min Rain = 0
KCO1 222036Z 09004KT 16/06 A3007 RMK A01 T01560061  RH  053%=      5-min Rain = 0
KCO1 222037Z 10003KT 15/06 A3007 RMK A01 T01540060  RH  053%=      5-min Rain = 0
KCO1 222038Z 07004KT 15/06 A3007 RMK A01 T01540061  RH  054%=      5-min Rain = 0
KCO1 222039Z 06004KT 15/06 A3007 RMK A01 T01540060  RH  053%=      5-min Rain = 0
KCO1 222040Z 10002KT 15/06 A3007 RMK A01 T01540061  RH  054%=      5-min Rain = 0
KCO1 222041Z 09005KT 15/06 A3007 RMK A01 T01540062  RH  054%=      5-min Rain = 0
KCO1 222042Z 08006KT 16/07 A3007 RMK A01 T01560065  RH  055%=      5-min Rain = 0
KCO1 222043Z 08008KT 16/07 A3007 RMK A01 T01560065  RH  054%=      5-min Rain = 0
KCO1 222044Z 07006KT 16/06 A3007 RMK A01 T01560064  RH  054%=      5-min Rain = 0
KCO1 222045Z 08004KT 15/06 A3007 RMK A01 T01540061  RH  054%=      5-min Rain = 0
KCO1 222046Z 07003KT 15/06 A3007 RMK A01 T01530062  RH  055%=      5-min Rain = 0
KCO1 222047Z 11003KT 15/06 A3007 RMK A01 T01530063  RH  055%=      5-min Rain = 0
KCO1 222048Z 12004KT 15/06 A3007 RMK A01 T01540064  RH  055%=      5-min Rain = 0
KCO1 222049Z 13005KT 16/06 A3007 RMK A01 T01550062  RH  054%=      5-min Rain = 0
KCO1 222050Z 13004KT 16/06 A3007 RMK A01 T01550062  RH  054%=      5-min Rain = 0
KCO1 222051Z 14005KT 16/06 A3007 RMK A01 T01560063  RH  054%=      5-min Rain = 0
KCO1 222052Z 12005KT 16/06 A3007 RMK A01 T01560061  RH  053%=      5-min Rain = 0
KCO1 222053Z 12006KT 16/06 A3007 RMK A01 T01560062  RH  053%=      5-min Rain = 0
KCO1 222054Z 14004KT 16/06 A3007 RMK A01 T01550060  RH  053%=      5-min Rain = 0
KCO1 222055Z 14004KT 15/06 A3006 RMK A01 T01540061  RH  054%=      5-min Rain = 0
KCO1 222056Z 14004KT 16/06 A3006 RMK A01 T01560064  RH  054%=      5-min Rain = 0
KCO1 222057Z 15005KT 16/06 A3006 RMK A01 T01590062  RH  053%=      5-min Rain = 0
KCO1 222058Z 15005KT 16/06 A3006 RMK A01 T01580059  RH  052%=      5-min Rain = 0
KCO1 222059Z 15005KT 16/06 A3007 RMK A01 T01570060  RH  053%=      5-min Rain = 0
KCO1 222100Z 16003KT 16/06 A3007 RMK A01 T01570060  RH  053%=      5-min Rain = 0
KCO1 222101Z 16002KT 16/06 A3007 RMK A01 T01570058  RH  052%=      5-min Rain = 0
KCO1 222102Z 17003KT 16/06 A3007 RMK A01 T01570060  RH  053%=      5-min Rain = 0
KCO1 222103Z 18004KT 16/06 A3006 RMK A01 T01580059  RH  052%=      5-min Rain = 0
KCO1 222104Z 17003KT 16/06 A3006 RMK A01 T01580060  RH  052%=      5-min Rain = 0
KCO1 222105Z 15005KT 16/06 A3006 RMK A01 T01580060  RH  052%=      5-min Rain = 0
KCO1 222106Z 15004KT 16/06 A3006 RMK A01 T01600062  RH  052%=      5-min Rain = 0
KCO1 222107Z 14004KT 16/06 A3006 RMK A01 T01610060  RH  051%=      5-min Rain = 0
KCO1 222108Z 09005KT 16/06 A3006 RMK A01 T01610063  RH  052%=      5-min Rain = 0
KCO1 222109Z 07008KT 16/07 A3006 RMK A01 T01630066  RH  053%=      5-min Rain = 0
KCO1 222110Z 08007KT 16/06 A3006 RMK A01 T01620064  RH  052%=      5-min Rain = 0
KCO1 222111Z 08006KT 16/06 A3006 RMK A01 T01590062  RH  052%=      5-min Rain = 0
KCO1 222112Z 07006KT 16/06 A3006 RMK A01 T01580064  RH  053%=      5-min Rain = 0
KCO1 222113Z 09005KT 16/06 A3006 RMK A01 T01580063  RH  053%=      5-min Rain = 0
KCO1 222114Z 09004KT 16/06 A3006 RMK A01 T01590063  RH  053%=      5-min Rain = 0
KCO1 222115Z 09004KT 16/07 A3006 RMK A01 T01590065  RH  053%=      5-min Rain = 0
KCO1 222116Z 09005KT 16/06 A3006 RMK A01 T01600064  RH  053%=      5-min Rain = 0
KCO1 222117Z 07008KT 16/06 A3006 RMK A01 T01600063  RH  052%=      5-min Rain = 0
KCO1 222118Z 07008KT 16/06 A3006 RMK A01 T01590062  RH  053%=      5-min Rain = 0
KCO1 222119Z 07007KT 16/06 A3006 RMK A01 T01570060  RH  052%=      5-min Rain = 0
KCO1 222120Z 07004KT 16/06 A3006 RMK A01 T01550060  RH  053%=      5-min Rain = 0
KCO1 222121Z 06003KT 16/06 A3006 RMK A01 T01550061  RH  054%=      5-min Rain = 0
KCO1 222122Z 08005KT 16/06 A3006 RMK A01 T01560062  RH  054%=      5-min Rain = 0
KCO1 222123Z 08004KT 16/06 A3006 RMK A01 T01560060  RH  053%=      5-min Rain = 0
KCO1 222124Z 07005KT 16/06 A3006 RMK A01 T01570062  RH  053%=      5-min Rain = 0
KCO1 222125Z 08004KT 16/06 A3006 RMK A01 T01570061  RH  052%=      5-min Rain = 0
KCO1 222126Z 09005KT 16/06 A3006 RMK A01 T01580061  RH  052%=      5-min Rain = 0
KCO1 222127Z 10004KT 16/06 A3006 RMK A01 T01580058  RH  051%=      5-min Rain = 0
KCO1 222128Z 09005KT 16/06 A3006 RMK A01 T01580059  RH  051%=      5-min Rain = 0
KCO1 222129Z 07005KT 16/06 A3006 RMK A01 T01590060  RH  052%=      5-min Rain = 0
KCO1 222130Z 06005KT 16/06 A3006 RMK A01 T01600059  RH  051%=      5-min Rain = 0
KCO1 222131Z 08006KT 16/06 A3006 RMK A01 T01600060  RH  052%=      5-min Rain = 0
KCO1 222132Z 09006KT 16/06 A3006 RMK A01 T01600061  RH  052%=      5-min Rain = 0
KCO1 222133Z 11006KT 16/06 A3006 RMK A01 T01600064  RH  053%=      5-min Rain = 0
KCO1 222134Z 12007KT 16/06 A3006 RMK A01 T01620064  RH  052%=      5-min Rain = 0
KCO1 222135Z 12007KT 16/06 A3005 RMK A01 T01610062  RH  052%=      5-min Rain = 0
KCO1 222136Z 13008KT 16/06 A3005 RMK A01 T01600061  RH  052%=      5-min Rain = 0
KCO1 222137Z 13008KT 16/06 A3005 RMK A01 T01580060  RH  052%=      5-min Rain = 0
KCO1 222138Z 12006KT 16/06 A3005 RMK A01 T01570060  RH  053%=      5-min Rain = 0
KCO1 222139Z 11006KT 16/06 A3005 RMK A01 T01570060  RH  052%=      5-min Rain = 0
KCO1 222140Z 12006KT 16/06 A3005 RMK A01 T01570060  RH  053%=      5-min Rain = 0
KCO1 222141Z 11005KT 16/06 A3005 RMK A01 T01570060  RH  052%=      5-min Rain = 0
KCO1 222142Z 12006KT 16/06 A3005 RMK A01 T01570060  RH  052%=      5-min Rain = 0
KCO1 222143Z 11006KT 16/06 A3005 RMK A01 T01570059  RH  052%=      5-min Rain = 0
KCO1 222144Z 12004KT 16/06 A3005 RMK A01 T01580060  RH  052%=      5-min Rain = 0
KCO1 222145Z 11004KT 16/06 A3005 RMK A01 T01590057  RH  051%=      5-min Rain = 0
KCO1 222146Z 13005KT 16/06 A3005 RMK A01 T01590059  RH  051%=      5-min Rain = 0
KCO1 222147Z 12006KT 16/06 A3005 RMK A01 T01590059  RH  051%=      5-min Rain = 0
KCO1 222148Z 10006KT 16/06 A3005 RMK A01 T01590058  RH  051%=      5-min Rain = 0
KCO1 222149Z 12007KT 16/06 A3005 RMK A01 T01590059  RH  052%=      5-min Rain = 0
KCO1 222150Z 11005KT 16/06 A3005 RMK A01 T01590061  RH  052%=      5-min Rain = 0
KCO1 222151Z 11004KT 16/06 A3005 RMK A01 T01600059  RH  051%=      5-min Rain = 0
KCO1 222152Z 11005KT 16/06 A3005 RMK A01 T01610061  RH  052%=      5-min Rain = 0
KCO1 222153Z 09007KT 16/06 A3005 RMK A01 T01610060  RH  051%=      5-min Rain = 0
KCO1 222154Z 10008KT 16/06 A3005 RMK A01 T01610061  RH  051%=      5-min Rain = 0
KCO1 222155Z 11007KT 16/06 A3005 RMK A01 T01620062  RH  052%=      5-min Rain = 0
KCO1 222156Z 09006KT 16/06 A3005 RMK A01 T01620061  RH  051%=      5-min Rain = 0
KCO1 222157Z 10007KT 16/06 A3005 RMK A01 T01590059  RH  051%=      5-min Rain = 0
KCO1 222158Z 11008KT 16/06 A3005 RMK A01 T01580060  RH  052%=      5-min Rain = 0
KCO1 222159Z 12006KT 16/06 A3005 RMK A01 T01580060  RH  052%=      5-min Rain = 0
KCO1 222200Z 10006KT 16/06 A3005 RMK A01 T01580062  RH  053%=      5-min Rain = 0
KCO1 222201Z 11008KT 16/06 A3005 RMK A01 T01580062  RH  053%=      5-min Rain = 0
KCO1 222202Z 11007KT 16/06 A3005 RMK A01 T01590061  RH  052%=      5-min Rain = 0
KCO1 222203Z 10006KT 16/06 A3005 RMK A01 T01570059  RH  052%=      5-min Rain = 0
KCO1 222204Z 10006KT 16/06 A3005 RMK A01 T01570059  RH  052%=      5-min Rain = 0
KCO1 222205Z 09006KT 16/06 A3005 RMK A01 T01560059  RH  052%=      5-min Rain = 0
KCO1 222206Z 09006KT 16/06 A3005 RMK A01 T01560059  RH  052%=      5-min Rain = 0
KCO1 222207Z 10007KT 16/06 A3005 RMK A01 T01570058  RH  052%=      5-min Rain = 0
KCO1 222208Z 12006KT 16/06 A3005 RMK A01 T01570060  RH  052%=      5-min Rain = 0
KCO1 222209Z 12006KT 16/06 A3005 RMK A01 T01580058  RH  052%=      5-min Rain = 0
KCO1 222210Z 12005KT 16/06 A3005 RMK A01 T01580058  RH  051%=      5-min Rain = 0
KCO1 222211Z 12006KT 16/06 A3005 RMK A01 T01580059  RH  052%=      5-min Rain = 0
KCO1 222212Z 12005KT 16/06 A3005 RMK A01 T01590057  RH  051%=      5-min Rain = 0
KCO1 222213Z 12005KT 16/06 A3004 RMK A01 T01580056  RH  051%=      5-min Rain = 0
KCO1 222214Z 12005KT 16/06 A3004 RMK A01 T01580055  RH  050%=      5-min Rain = 0
KCO1 222215Z 12004KT 16/06 A3004 RMK A01 T01580055  RH  051%=      5-min Rain = 0
KCO1 222216Z 10004KT 16/06 A3004 RMK A01 T01580057  RH  051%=      5-min Rain = 0
KCO1 222217Z 07003KT 16/06 A3004 RMK A01 T01590056  RH  050%=      5-min Rain = 0
KCO1 222218Z 08003KT 16/06 A3004 RMK A01 T01590055  RH  050%=      5-min Rain = 0
KCO1 222219Z 09004KT 16/06 A3004 RMK A01 T01590055  RH  050%=      5-min Rain = 0
KCO1 222220Z 10003KT 16/06 A3004 RMK A01 T01580055  RH  050%=      5-min Rain = 0
KCO1 222221Z 09004KT 16/06 A3004 RMK A01 T01580057  RH  051%=      5-min Rain = 0
KCO1 222222Z 09004KT 16/06 A3004 RMK A01 T01590058  RH  051%=      5-min Rain = 0
KCO1 222223Z 08004KT 16/06 A3004 RMK A01 T01600058  RH  051%=      5-min Rain = 0
KCO1 222224Z 09005KT 16/06 A3004 RMK A01 T01600060  RH  051%=      5-min Rain = 0
KCO1 222225Z 11004KT 16/06 A3004 RMK A01 T01600060  RH  051%=      5-min Rain = 0
KCO1 222226Z 08006KT 16/06 A3004 RMK A01 T01590059  RH  051%=      5-min Rain = 0
KCO1 222227Z 09007KT 16/06 A3005 RMK A01 T01580059  RH  052%=      5-min Rain = 0
KCO1 222228Z 10007KT 16/06 A3005 RMK A01 T01570060  RH  052%=      5-min Rain = 0
KCO1 222229Z 11006KT 16/06 A3005 RMK A01 T01570058  RH  052%=      5-min Rain = 0
KCO1 222230Z 10005KT 16/06 A3005 RMK A01 T01560057  RH  052%=      5-min Rain = 0
KCO1 222231Z 13005KT 16/06 A3005 RMK A01 T01560059  RH  053%=      5-min Rain = 0
KCO1 222232Z 13007KT 16/06 A3004 RMK A01 T01570058  RH  052%=      5-min Rain = 0
KCO1 222233Z 12006KT 16/06 A3004 RMK A01 T01570058  RH  052%=      5-min Rain = 0
KCO1 222234Z 13005KT 16/06 A3004 RMK A01 T01570057  RH  051%=      5-min Rain = 0
KCO1 222235Z 12005KT 16/06 A3004 RMK A01 T01570058  RH  052%=      5-min Rain = 0
KCO1 222236Z 12003KT 16/06 A3004 RMK A01 T01580058  RH  051%=      5-min Rain = 0
KCO1 222237Z 10005KT 16/06 A3004 RMK A01 T01590058  RH  051%=      5-min Rain = 0
KCO1 222238Z 11005KT 16/06 A3004 RMK A01 T01590058  RH  051%=      5-min Rain = 0
KCO1 222239Z 09005KT 16/06 A3004 RMK A01 T01590058  RH  051%=      5-min Rain = 0
KCO1 222240Z 09005KT 16/06 A3004 RMK A01 T01590058  RH  051%=      5-min Rain = 0
KCO1 222241Z 10004KT 16/06 A3004 RMK A01 T01580056  RH  051%=      5-min Rain = 0
KCO1 222242Z 09004KT 16/06 A3004 RMK A01 T01580058  RH  051%=      5-min Rain = 0
KCO1 222243Z 10004KT 16/06 A3004 RMK A01 T01580057  RH  051%=      5-min Rain = 0
KCO1 222244Z 12005KT 16/06 A3004 RMK A01 T01580057  RH  051%=      5-min Rain = 0
KCO1 222245Z 11004KT 16/06 A3004 RMK A01 T01580056  RH  051%=      5-min Rain = 0
KCO1 222246Z 10004KT 16/06 A3004 RMK A01 T01580057  RH  051%=      5-min Rain = 0
KCO1 222247Z 11003KT 16/06 A3005 RMK A01 T01580058  RH  051%=      5-min Rain = 0
KCO1 222248Z 10003KT 16/06 A3005 RMK A01 T01590059  RH  051%=      5-min Rain = 0
KCO1 222249Z 10004KT 16/06 A3005 RMK A01 T01590058  RH  051%=      5-min Rain = 0
KCO1 222250Z 09003KT 16/06 A3005 RMK A01 T01590057  RH  051%=      5-min Rain = 0
KCO1 222251Z 08003KT 16/06 A3005 RMK A01 T01580056  RH  051%=      5-min Rain = 0
KCO1 222252Z 08004KT 16/06 A3005 RMK A01 T01580056  RH  051%=      5-min Rain = 0
KCO1 222253Z 08003KT 16/06 A3004 RMK A01 T01570058  RH  052%=      5-min Rain = 0
KCO1 222254Z 08003KT 16/06 A3004 RMK A01 T01570059  RH  052%=      5-min Rain = 0
KCO1 222255Z 08003KT 16/06 A3004 RMK A01 T01570060  RH  052%=      5-min Rain = 0
KCO1 222256Z 08004KT 16/06 A3004 RMK A01 T01570058  RH  052%=      5-min Rain = 0
KCO1 222257Z 09004KT 16/06 A3004 RMK A01 T01570059  RH  052%=      5-min Rain = 0
KCO1 222258Z 08004KT 16/06 A3004 RMK A01 T01560059  RH  052%=      5-min Rain = 0
KCO1 222259Z 08003KT 16/06 A3004 RMK A01 T01550057  RH  052%=      5-min Rain = 0
KCO1 222300Z 08003KT 15/06 A3004 RMK A01 T01540056  RH  052%=      5-min Rain = 0
KCO1 222301Z 08003KT 15/06 A3004 RMK A01 T01540057  RH  052%=      5-min Rain = 0
KCO1 222302Z 08003KT 15/06 A3004 RMK A01 T01540058  RH  053%=      5-min Rain = 0
KCO1 222303Z 08003KT 15/06 A3004 RMK A01 T01540058  RH  053%=      5-min Rain = 0
KCO1 222304Z 08003KT 15/06 A3004 RMK A01 T01540058  RH  053%=      5-min Rain = 0
KCO1 222305Z 08003KT 15/06 A3004 RMK A01 T01530056  RH  052%=      5-min Rain = 0
KCO1 222306Z 08002KT 15/06 A3004 RMK A01 T01530058  RH  053%=      5-min Rain = 0
KCO1 222307Z 07003KT 15/06 A3004 RMK A01 T01530059  RH  053%=      5-min Rain = 0
KCO1 222308Z 09002KT 15/06 A3004 RMK A01 T01530059  RH  053%=      5-min Rain = 0
KCO1 222309Z 08002KT 15/06 A3004 RMK A01 T01530058  RH  053%=      5-min Rain = 0
KCO1 222310Z 08002KT 15/06 A3004 RMK A01 T01530058  RH  053%=      5-min Rain = 0
KCO1 222311Z 08002KT 15/06 A3004 RMK A01 T01530058  RH  053%=      5-min Rain = 0
KCO1 222312Z 07003KT 15/06 A3004 RMK A01 T01520058  RH  053%=      5-min Rain = 0
KCO1 222313Z 07004KT 15/06 A3004 RMK A01 T01520057  RH  053%=      5-min Rain = 0
KCO1 222314Z 08003KT 15/06 A3004 RMK A01 T01510056  RH  053%=      5-min Rain = 0
KCO1 222315Z 07003KT 15/06 A3004 RMK A01 T01510056  RH  053%=      5-min Rain = 0
KCO1 222316Z 08003KT 15/06 A3004 RMK A01 T01500057  RH  053%=      5-min Rain = 0
KCO1 222317Z 07003KT 15/06 A3004 RMK A01 T01500057  RH  054%=      5-min Rain = 0
KCO1 222318Z 07002KT 15/06 A3004 RMK A01 T01490055  RH  053%=      5-min Rain = 0
KCO1 222319Z 07002KT 15/06 A3004 RMK A01 T01490055  RH  053%=      5-min Rain = 0
KCO1 222320Z 07002KT 15/06 A3004 RMK A01 T01490057  RH  054%=      5-min Rain = 0
KCO1 222321Z 09002KT 15/06 A3004 RMK A01 T01490059  RH  054%=      5-min Rain = 0
KCO1 222322Z 09003KT 15/06 A3004 RMK A01 T01490060  RH  055%=      5-min Rain = 0
KCO1 222323Z 09003KT 15/06 A3004 RMK A01 T01490060  RH  055%=      5-min Rain = 0
KCO1 222324Z 08003KT 15/06 A3004 RMK A01 T01490058  RH  055%=      5-min Rain = 0
KCO1 222325Z 08002KT 15/06 A3004 RMK A01 T01480059  RH  055%=      5-min Rain = 0
KCO1 222326Z 08002KT 15/06 A3004 RMK A01 T01480061  RH  056%=      5-min Rain = 0
KCO1 222327Z 08002KT 15/06 A3004 RMK A01 T01480061  RH  056%=      5-min Rain = 0
KCO1 222328Z 07003KT 15/06 A3004 RMK A01 T01470061  RH  056%=      5-min Rain = 0
KCO1 222329Z 07003KT 15/06 A3004 RMK A01 T01470061  RH  056%=      5-min Rain = 0
KCO1 222330Z 07003KT 15/06 A3004 RMK A01 T01460060  RH  056%=      5-min Rain = 0
KCO1 222331Z 09003KT 15/06 A3004 RMK A01 T01450061  RH  057%=      5-min Rain = 0
KCO1 222332Z 08003KT 15/06 A3004 RMK A01 T01450061  RH  057%=      5-min Rain = 0
KCO1 222333Z 09004KT 14/06 A3004 RMK A01 T01440061  RH  057%=      5-min Rain = 0
KCO1 222334Z 09004KT 14/06 A3004 RMK A01 T01430059  RH  057%=      5-min Rain = 0
KCO1 222335Z 09003KT 14/06 A3004 RMK A01 T01420058  RH  057%=      5-min Rain = 0
KCO1 222336Z 09004KT 14/06 A3004 RMK A01 T01410059  RH  058%=      5-min Rain = 0
KCO1 222337Z 09004KT 14/06 A3004 RMK A01 T01400059  RH  058%=      5-min Rain = 0
KCO1 222338Z 09004KT 14/06 A3004 RMK A01 T01400060  RH  059%=      5-min Rain = 0
KCO1 222339Z 09004KT 14/06 A3004 RMK A01 T01390060  RH  059%=      5-min Rain = 0
KCO1 222340Z 09005KT 14/06 A3004 RMK A01 T01380060  RH  059%=      5-min Rain = 0
KCO1 222341Z 10005KT 14/06 A3004 RMK A01 T01370060  RH  060%=      5-min Rain = 0
KCO1 222342Z 10005KT 14/06 A3004 RMK A01 T01360060  RH  060%=      5-min Rain = 0
KCO1 222343Z 10005KT 14/06 A3004 RMK A01 T01360061  RH  061%=      5-min Rain = 0
KCO1 222344Z 10005KT 14/06 A3004 RMK A01 T01350061  RH  061%=      5-min Rain = 0
KCO1 222345Z 10005KT 13/06 A3004 RMK A01 T01340062  RH  062%=      5-min Rain = 0
KCO1 222346Z 10005KT 13/06 A3004 RMK A01 T01330061  RH  062%=      5-min Rain = 0
KCO1 222347Z 10004KT 13/06 A3004 RMK A01 T01320061  RH  062%=      5-min Rain = 0
KCO1 222348Z 09004KT 13/06 A3004 RMK A01 T01310061  RH  062%=      5-min Rain = 0
KCO1 222349Z 11004KT 13/06 A3005 RMK A01 T01310061  RH  063%=      5-min Rain = 0
KCO1 222350Z 10004KT 13/06 A3005 RMK A01 T01300061  RH  063%=      5-min Rain = 0
KCO1 222351Z 09004KT 13/06 A3005 RMK A01 T01300062  RH  063%=      5-min Rain = 0
KCO1 222352Z 09004KT 13/06 A3005 RMK A01 T01290062  RH  064%=      5-min Rain = 0
KCO1 222353Z 08004KT 13/06 A3005 RMK A01 T01280062  RH  064%=      5-min Rain = 0
KCO1 222354Z 09004KT 13/06 A3005 RMK A01 T01280062  RH  064%=      5-min Rain = 0
KCO1 222355Z 09004KT 13/06 A3005 RMK A01 T01270062  RH  065%=      5-min Rain = 0
KCO1 222356Z 09005KT 13/06 A3005 RMK A01 T01260062  RH  065%=      5-min Rain = 0
KCO1 222357Z 09005KT 13/06 A3005 RMK A01 T01250061  RH  065%=      5-min Rain = 0
KCO1 222358Z 09005KT 12/06 A3005 RMK A01 T01240062  RH  065%=      5-min Rain = 0
KCO1 222359Z 09005KT 12/06 A3005 RMK A01 T01240062  RH  066%=      5-min Rain = 0
KCO1 230000Z 09006KT 12/06 A3005 RMK A01 T01230061  RH  066%=      5-min Rain = 0
KCO1 230001Z 09005KT 12/06 A3005 RMK A01 T01230061  RH  066%=      5-min Rain = 0
KCO1 230002Z 09005KT 12/06 A3005 RMK A01 T01220061  RH  066%=      5-min Rain = 0
KCO1 230003Z 09005KT 12/06 A3005 RMK A01 T01220061  RH  066%=      5-min Rain = 0
KCO1 230004Z 10005KT 12/06 A3005 RMK A01 T01220061  RH  066%=      5-min Rain = 0
KCO1 230005Z 12005KT 12/06 A3005 RMK A01 T01210061  RH  066%=      5-min Rain = 0
KCO1 230006Z 12004KT 12/06 A3005 RMK A01 T01210061  RH  067%=      5-min Rain = 0
KCO1 230007Z 13004KT 12/06 A3005 RMK A01 T01200061  RH  067%=      5-min Rain = 0
KCO1 230008Z 13004KT 12/06 A3005 RMK A01 T01190061  RH  067%=      5-min Rain = 0
KCO1 230009Z 13004KT 12/06 A3005 RMK A01 T01190061  RH  068%=      5-min Rain = 0
KCO1 230010Z 13004KT 12/06 A3005 RMK A01 T01180061  RH  068%=      5-min Rain = 0
KCO1 230011Z 12005KT 12/06 A3005 RMK A01 T01170061  RH  068%=      5-min Rain = 0
KCO1 230012Z 10006KT 12/06 A3005 RMK A01 T01170061  RH  069%=      5-min Rain = 0
KCO1 230013Z 10006KT 12/06 A3005 RMK A01 T01170061  RH  069%=      5-min Rain = 0
KCO1 230014Z 10006KT 12/06 A3005 RMK A01 T01170061  RH  069%=      5-min Rain = 0
KCO1 230015Z 10006KT 12/06 A3005 RMK A01 T01170061  RH  069%=      5-min Rain = 0
KCO1 230016Z 10006KT 12/06 A3005 RMK A01 T01160061  RH  069%=      5-min Rain = 0
KCO1 230017Z 10006KT 12/06 A3005 RMK A01 T01160061  RH  069%=      5-min Rain = 0
KCO1 230018Z 10006KT 12/06 A3005 RMK A01 T01160061  RH  069%=      5-min Rain = 0
KCO1 230019Z 10006KT 12/06 A3005 RMK A01 T01160061  RH  069%=      5-min Rain = 0
KCO1 230020Z 10006KT 12/06 A3005 RMK A01 T01160061  RH  069%=      5-min Rain = 0
KCO1 230021Z 10006KT 12/06 A3005 RMK A01 T01160061  RH  069%=      5-min Rain = 0
KCO1 230022Z 10006KT 12/06 A3005 RMK A01 T01160061  RH  069%=      5-min Rain = 0
KCO1 230023Z 10006KT 12/06 A3005 RMK A01 T01160061  RH  069%=      5-min Rain = 0
KCO1 230024Z 10006KT 12/06 A3005 RMK A01 T01160061  RH  069%=      5-min Rain = 0
KCO1 230025Z 11006KT 12/06 A3005 RMK A01 T01160061  RH  069%=      5-min Rain = 0
KCO1 230026Z 11006KT 12/06 A3005 RMK A01 T01150061  RH  069%=      5-min Rain = 0
KCO1 230027Z 11006KT 12/06 A3005 RMK A01 T01160062  RH  069%=      5-min Rain = 0
KCO1 230028Z 11006KT 12/06 A3005 RMK A01 T01160061  RH  069%=      5-min Rain = 0
KCO1 230029Z 11006KT 12/06 A3005 RMK A01 T01160061  RH  069%=      5-min Rain = 0
KCO1 230030Z 10006KT 12/06 A3005 RMK A01 T01160061  RH  069%=      5-min Rain = 0
KCO1 230031Z 10006KT 12/06 A3005 RMK A01 T01160061  RH  069%=      5-min Rain = 0
KCO1 230032Z 10006KT 12/06 A3005 RMK A01 T01150060  RH  069%=      5-min Rain = 0
KCO1 230033Z 11006KT 12/06 A3005 RMK A01 T01150061  RH  069%=      5-min Rain = 0
KCO1 230034Z 11005KT 12/06 A3005 RMK A01 T01150061  RH  069%=      5-min Rain = 0
KCO1 230035Z 11005KT 12/06 A3005 RMK A01 T01150062  RH  070%=      5-min Rain = 0
KCO1 230036Z 12005KT 12/06 A3005 RMK A01 T01150062  RH  070%=      5-min Rain = 0
KCO1 230037Z 11005KT 12/06 A3005 RMK A01 T01150062  RH  070%=      5-min Rain = 0
KCO1 230038Z 11006KT 12/06 A3005 RMK A01 T01150062  RH  070%=      5-min Rain = 0
KCO1 230039Z 11006KT 12/06 A3005 RMK A01 T01150061  RH  070%=      5-min Rain = 0
KCO1 230040Z 12006KT 12/06 A3005 RMK A01 T01150061  RH  069%=      5-min Rain = 0
KCO1 230041Z 12006KT 12/06 A3005 RMK A01 T01150060  RH  069%=      5-min Rain = 0
KCO1 230042Z 12007KT 12/06 A3005 RMK A01 T01150060  RH  069%=      5-min Rain = 0
KCO1 230043Z 12007KT 12/06 A3005 RMK A01 T01150060  RH  069%=      5-min Rain = 0
KCO1 230044Z 12007KT 12/06 A3005 RMK A01 T01160060  RH  068%=      5-min Rain = 0
KCO1 230045Z 12006KT 12/06 A3005 RMK A01 T01160060  RH  068%=      5-min Rain = 0
KCO1 230046Z 12006KT 12/06 A3005 RMK A01 T01160060  RH  068%=      5-min Rain = 0
KCO1 230047Z 12006KT 12/06 A3005 RMK A01 T01160060  RH  068%=      5-min Rain = 0
KCO1 230048Z 12007KT 12/06 A3005 RMK A01 T01160060  RH  068%=      5-min Rain = 0
KCO1 230049Z 12006KT 12/06 A3005 RMK A01 T01160059  RH  068%=      5-min Rain = 0
KCO1 230050Z 12007KT 12/06 A3005 RMK A01 T01170060  RH  068%=      5-min Rain = 0
KCO1 230051Z 12007KT 12/06 A3005 RMK A01 T01160060  RH  068%=      5-min Rain = 0
KCO1 230052Z 12007KT 12/06 A3005 RMK A01 T01160060  RH  068%=      5-min Rain = 0
KCO1 230053Z 12007KT 12/06 A3005 RMK A01 T01170060  RH  068%=      5-min Rain = 0
KCO1 230054Z 12006KT 12/06 A3005 RMK A01 T01160060  RH  068%=      5-min Rain = 0
KCO1 230055Z 12007KT 12/06 A3005 RMK A01 T01160060  RH  068%=      5-min Rain = 0
KCO1 230056Z 12007KT 12/06 A3005 RMK A01 T01170060  RH  068%=      5-min Rain = 0
KCO1 230057Z 13007KT 12/06 A3005 RMK A01 T01170059  RH  068%=      5-min Rain = 0
KCO1 230058Z 12008KT 12/06 A3005 RMK A01 T01170060  RH  068%=      5-min Rain = 0
KCO1 230059Z 13008KT 12/06 A3005 RMK A01 T01170059  RH  068%=      5-min Rain = 0
KCO1 230100Z 13007KT 12/06 A3005 RMK A01 T01170059  RH  068%=      5-min Rain = 0
KCO1 230101Z 13008KT 12/06 A3005 RMK A01 T01170059  RH  068%=      5-min Rain = 0
KCO1 230102Z 13007KT 12/06 A3005 RMK A01 T01170059  RH  068%=      5-min Rain = 0
KCO1 230103Z 12008KT 12/06 A3005 RMK A01 T01160059  RH  068%=      5-min Rain = 0
KCO1 230104Z 12007KT 12/06 A3005 RMK A01 T01160059  RH  068%=      5-min Rain = 0
KCO1 230105Z 12007KT 12/06 A3005 RMK A01 T01170059  RH  068%=      5-min Rain = 0
KCO1 230106Z 12007KT 12/06 A3005 RMK A01 T01160059  RH  068%=      5-min Rain = 0
KCO1 230107Z 12007KT 12/06 A3005 RMK A01 T01160059  RH  068%=      5-min Rain = 0
KCO1 230108Z 12007KT 12/06 A3005 RMK A01 T01160059  RH  068%=      5-min Rain = 0
KCO1 230109Z 12006KT 12/06 A3005 RMK A01 T01150059  RH  068%=      5-min Rain = 0
KCO1 230110Z 12006KT 12/06 A3005 RMK A01 T01160059  RH  068%=      5-min Rain = 0
KCO1 230111Z 12006KT 12/06 A3005 RMK A01 T01150060  RH  069%=      5-min Rain = 0
KCO1 230112Z 12005KT 12/06 A3005 RMK A01 T01150059  RH  069%=      5-min Rain = 0
KCO1 230113Z 12007KT 11/06 A3005 RMK A01 T01140060  RH  069%=      5-min Rain = 0
KCO1 230114Z 12007KT 11/06 A3005 RMK A01 T01140059  RH  069%=      5-min Rain = 0
KCO1 230115Z 12007KT 11/06 A3005 RMK A01 T01140059  RH  069%=      5-min Rain = 0
KCO1 230116Z 12006KT 11/06 A3005 RMK A01 T01140059  RH  069%=      5-min Rain = 0
KCO1 230117Z 12005KT 11/06 A3006 RMK A01 T01140059  RH  069%=      5-min Rain = 0
KCO1 230118Z 13005KT 11/06 A3006 RMK A01 T01130059  RH  069%=      5-min Rain = 0
KCO1 230119Z 13006KT 11/06 A3006 RMK A01 T01130059  RH  069%=      5-min Rain = 0
KCO1 230120Z 13006KT 11/06 A3006 RMK A01 T01130059  RH  069%=      5-min Rain = 0
KCO1 230121Z 13006KT 11/06 A3006 RMK A01 T01120058  RH  069%=      5-min Rain = 0
KCO1 230122Z 13006KT 11/06 A3006 RMK A01 T01130059  RH  069%=      5-min Rain = 0
KCO1 230123Z 12006KT 11/06 A3006 RMK A01 T01120058  RH  069%=      5-min Rain = 0
KCO1 230124Z 12006KT 11/06 A3006 RMK A01 T01110058  RH  070%=      5-min Rain = 0
KCO1 230125Z 12006KT 11/06 A3006 RMK A01 T01110058  RH  070%=      5-min Rain = 0
KCO1 230126Z 12006KT 11/06 A3006 RMK A01 T01110058  RH  070%=      5-min Rain = 0
KCO1 230127Z 12006KT 11/06 A3006 RMK A01 T01110058  RH  070%=      5-min Rain = 0
KCO1 230128Z 11006KT 11/06 A3007 RMK A01 T01100057  RH  070%=      5-min Rain = 0
KCO1 230129Z 11005KT 11/06 A3007 RMK A01 T01110058  RH  070%=      5-min Rain = 0
KCO1 230130Z 11006KT 11/06 A3007 RMK A01 T01100057  RH  070%=      5-min Rain = 0
KCO1 230131Z 11005KT 11/06 A3007 RMK A01 T01100057  RH  070%=      5-min Rain = 0
KCO1 230132Z 11005KT 11/06 A3007 RMK A01 T01090057  RH  070%=      5-min Rain = 0
KCO1 230133Z 10004KT 11/06 A3007 RMK A01 T01090057  RH  070%=      5-min Rain = 0
KCO1 230134Z 10004KT 11/06 A3007 RMK A01 T01090058  RH  071%=      5-min Rain = 0
KCO1 230135Z 10004KT 11/06 A3007 RMK A01 T01080057  RH  071%=      5-min Rain = 0
KCO1 230136Z 10004KT 11/06 A3007 RMK A01 T01080058  RH  071%=      5-min Rain = 0
KCO1 230137Z 11004KT 11/06 A3007 RMK A01 T01080058  RH  071%=      5-min Rain = 0
KCO1 230138Z 11005KT 11/06 A3007 RMK A01 T01070058  RH  071%=      5-min Rain = 0
KCO1 230139Z 11004KT 11/06 A3007 RMK A01 T01070058  RH  072%=      5-min Rain = 0
KCO1 230140Z 11005KT 11/06 A3007 RMK A01 T01060057  RH  072%=      5-min Rain = 0
KCO1 230141Z 11005KT 11/06 A3007 RMK A01 T01070058  RH  072%=      5-min Rain = 0
KCO1 230142Z 11004KT 11/06 A3007 RMK A01 T01070058  RH  072%=      5-min Rain = 0
KCO1 230143Z 11004KT 11/06 A3007 RMK A01 T01060058  RH  072%=      5-min Rain = 0
KCO1 230144Z 11004KT 11/06 A3007 RMK A01 T01060058  RH  072%=      5-min Rain = 0
KCO1 230145Z 11003KT 11/06 A3007 RMK A01 T01050058  RH  073%=      5-min Rain = 0
KCO1 230146Z 11004KT 11/06 A3007 RMK A01 T01050059  RH  073%=      5-min Rain = 0
KCO1 230147Z 11003KT 10/06 A3007 RMK A01 T01040059  RH  073%=      5-min Rain = 0
KCO1 230148Z 11004KT 10/06 A3007 RMK A01 T01040058  RH  073%=      5-min Rain = 0
KCO1 230149Z 11004KT 10/06 A3007 RMK A01 T01030058  RH  074%=      5-min Rain = 0
KCO1 230150Z 11005KT 10/06 A3007 RMK A01 T01030058  RH  074%=      5-min Rain = 0
KCO1 230151Z 11005KT 10/06 A3007 RMK A01 T01030058  RH  074%=      5-min Rain = 0
KCO1 230152Z 12004KT 10/06 A3007 RMK A01 T01020058  RH  074%=      5-min Rain = 0
KCO1 230153Z 12004KT 10/06 A3007 RMK A01 T01020058  RH  074%=      5-min Rain = 0
KCO1 230154Z 12004KT 10/06 A3007 RMK A01 T01010058  RH  075%=      5-min Rain = 0
KCO1 230155Z 12004KT 10/06 A3007 RMK A01 T01010059  RH  075%=      5-min Rain = 0
KCO1 230156Z 11003KT 10/06 A3007 RMK A01 T01010059  RH  075%=      5-min Rain = 0
KCO1 230157Z 11003KT 10/06 A3007 RMK A01 T01010059  RH  075%=      5-min Rain = 0
KCO1 230158Z 11003KT 10/06 A3007 RMK A01 T01010059  RH  075%=      5-min Rain = 0
KCO1 230159Z 11004KT 10/06 A3007 RMK A01 T01010059  RH  075%=      5-min Rain = 0
KCO1 230200Z 11003KT 10/06 A3007 RMK A01 T01010058  RH  075%=      5-min Rain = 0
KCO1 230201Z 11003KT 10/06 A3008 RMK A01 T01010058  RH  075%=      5-min Rain = 0
KCO1 230202Z 12004KT 10/06 A3008 RMK A01 T01000058  RH  075%=      5-min Rain = 0
KCO1 230203Z 12004KT 10/06 A3008 RMK A01 T01000058  RH  075%=      5-min Rain = 0
KCO1 230204Z 12004KT 10/06 A3008 RMK A01 T01000058  RH  075%=      5-min Rain = 0
KCO1 230205Z 13005KT 10/06 A3008 RMK A01 T01000058  RH  076%=      5-min Rain = 0
KCO1 230206Z 13005KT 10/06 A3008 RMK A01 T00990059  RH  076%=      5-min Rain = 0
KCO1 230207Z 13005KT 10/06 A3008 RMK A01 T00990059  RH  076%=      5-min Rain = 0
KCO1 230208Z 13005KT 10/06 A3008 RMK A01 T00990058  RH  076%=      5-min Rain = 0
KCO1 230209Z 13005KT 10/06 A3008 RMK A01 T00990058  RH  076%=      5-min Rain = 0
KCO1 230210Z 13005KT 10/06 A3008 RMK A01 T00990058  RH  076%=      5-min Rain = 0
KCO1 230211Z 13005KT 10/06 A3008 RMK A01 T00990058  RH  076%=      5-min Rain = 0
KCO1 230212Z 13004KT 10/06 A3008 RMK A01 T00980058  RH  076%=      5-min Rain = 0
KCO1 230213Z 13005KT 10/06 A3008 RMK A01 T00990058  RH  076%=      5-min Rain = 0
KCO1 230214Z 13004KT 10/06 A3008 RMK A01 T00990058  RH  076%=      5-min Rain = 0
KCO1 230215Z 13004KT 10/06 A3008 RMK A01 T00990058  RH  076%=      5-min Rain = 0
KCO1 230216Z 12004KT 10/06 A3008 RMK A01 T00980058  RH  076%=      5-min Rain = 0
KCO1 230217Z 12004KT 10/06 A3008 RMK A01 T00980058  RH  076%=      5-min Rain = 0
KCO1 230218Z 12004KT 10/06 A3008 RMK A01 T00980058  RH  076%=      5-min Rain = 0
KCO1 230219Z 12004KT 10/06 A3008 RMK A01 T00980058  RH  076%=      5-min Rain = 0
KCO1 230220Z 12004KT 10/06 A3008 RMK A01 T00970058  RH  077%=      5-min Rain = 0
KCO1 230221Z 12004KT 10/06 A3008 RMK A01 T00970058  RH  077%=      5-min Rain = 0
KCO1 230222Z 12004KT 10/06 A3008 RMK A01 T00960058  RH  077%=      5-min Rain = 0
KCO1 230223Z 13004KT 10/06 A3008 RMK A01 T00960058  RH  077%=      5-min Rain = 0
KCO1 230224Z 13005KT 10/06 A3008 RMK A01 T00960058  RH  077%=      5-min Rain = 0
KCO1 230225Z 13005KT 10/06 A3008 RMK A01 T00950057  RH  077%=      5-min Rain = 0
KCO1 230226Z 13005KT 10/06 A3008 RMK A01 T00950057  RH  077%=      5-min Rain = 0
KCO1 230227Z 14005KT 10/06 A3008 RMK A01 T00950058  RH  078%=      5-min Rain = 0
KCO1 230228Z 14005KT 09/06 A3008 RMK A01 T00940057  RH  078%=      5-min Rain = 0
KCO1 230229Z 14005KT 09/06 A3008 RMK A01 T00930057  RH  078%=      5-min Rain = 0
KCO1 230230Z 14005KT 09/06 A3008 RMK A01 T00930058  RH  078%=      5-min Rain = 0
KCO1 230231Z 14006KT 09/06 A3008 RMK A01 T00920057  RH  079%=      5-min Rain = 0
KCO1 230232Z 14006KT 09/06 A3008 RMK A01 T00920057  RH  079%=      5-min Rain = 0
KCO1 230233Z 14006KT 09/06 A3008 RMK A01 T00920057  RH  079%=      5-min Rain = 0
KCO1 230234Z 14006KT 09/06 A3008 RMK A01 T00910057  RH  079%=      5-min Rain = 0
KCO1 230235Z 14006KT 09/06 A3008 RMK A01 T00910057  RH  079%=      5-min Rain = 0
KCO1 230236Z 14006KT 09/06 A3008 RMK A01 T00920057  RH  079%=      5-min Rain = 0
KCO1 230237Z 14005KT 09/06 A3008 RMK A01 T00920056  RH  079%=      5-min Rain = 0
KCO1 230238Z 14006KT 09/06 A3008 RMK A01 T00920056  RH  078%=      5-min Rain = 0
KCO1 230239Z 14005KT 09/06 A3008 RMK A01 T00930056  RH  078%=      5-min Rain = 0
KCO1 230240Z 14006KT 09/06 A3008 RMK A01 T00930056  RH  078%=      5-min Rain = 0
KCO1 230241Z 15005KT 09/06 A3008 RMK A01 T00940056  RH  077%=      5-min Rain = 0
KCO1 230242Z 14006KT 09/06 A3008 RMK A01 T00940055  RH  077%=      5-min Rain = 0
KCO1 230243Z 14006KT 09/06 A3008 RMK A01 T00940055  RH  077%=      5-min Rain = 0
KCO1 230244Z 14006KT 09/06 A3008 RMK A01 T00940055  RH  077%=      5-min Rain = 0
KCO1 230245Z 14006KT 09/06 A3008 RMK A01 T00940055  RH  077%=      5-min Rain = 0
KCO1 230246Z 14006KT 09/06 A3008 RMK A01 T00930055  RH  077%=      5-min Rain = 0
KCO1 230247Z 14006KT 09/06 A3008 RMK A01 T00940055  RH  077%=      5-min Rain = 0
KCO1 230248Z 14006KT 09/06 A3008 RMK A01 T00930055  RH  077%=      5-min Rain = 0
KCO1 230249Z 14006KT 09/06 A3008 RMK A01 T00930055  RH  077%=      5-min Rain = 0
KCO1 230250Z 14006KT 09/06 A3008 RMK A01 T00930055  RH  077%=      5-min Rain = 0
KCO1 230251Z 14006KT 09/05 A3008 RMK A01 T00920054  RH  077%=      5-min Rain = 0
KCO1 230252Z 14005KT 09/05 A3008 RMK A01 T00920054  RH  077%=      5-min Rain = 0
KCO1 230253Z 14005KT 09/05 A3008 RMK A01 T00920054  RH  077%=      5-min Rain = 0
KCO1 230254Z 14005KT 09/05 A3008 RMK A01 T00910054  RH  078%=      5-min Rain = 0
KCO1 230255Z 13005KT 09/05 A3008 RMK A01 T00910054  RH  078%=      5-min Rain = 0
KCO1 230256Z 13005KT 09/05 A3008 RMK A01 T00910054  RH  078%=      5-min Rain = 0
KCO1 230257Z 13004KT 09/05 A3008 RMK A01 T00900054  RH  078%=      5-min Rain = 0
KCO1 230258Z 12004KT 09/05 A3008 RMK A01 T00900054  RH  078%=      5-min Rain = 0
KCO1 230259Z 12004KT 09/05 A3008 RMK A01 T00890054  RH  078%=      5-min Rain = 0
KCO1 230300Z 12004KT 09/05 A3008 RMK A01 T00890054  RH  079%=      5-min Rain = 0
KCO1 230301Z 13004KT 09/05 A3008 RMK A01 T00880054  RH  079%=      5-min Rain = 0
KCO1 230302Z 13004KT 09/05 A3008 RMK A01 T00880054  RH  079%=      5-min Rain = 0
KCO1 230303Z 13005KT 09/05 A3009 RMK A01 T00880054  RH  079%=      5-min Rain = 0
KCO1 230304Z 13005KT 09/05 A3009 RMK A01 T00870054  RH  079%=      5-min Rain = 0
KCO1 230305Z 14005KT 09/05 A3009 RMK A01 T00870054  RH  080%=      5-min Rain = 0
KCO1 230306Z 14004KT 09/05 A3009 RMK A01 T00860053  RH  080%=      5-min Rain = 0
KCO1 230307Z 14004KT 09/05 A3009 RMK A01 T00860053  RH  080%=      5-min Rain = 0
KCO1 230308Z 14004KT 09/05 A3009 RMK A01 T00860053  RH  080%=      5-min Rain = 0
KCO1 230309Z 15004KT 09/05 A3009 RMK A01 T00850053  RH  080%=      5-min Rain = 0
KCO1 230310Z 15004KT 09/05 A3009 RMK A01 T00850053  RH  081%=      5-min Rain = 0
KCO1 230311Z 15004KT 09/05 A3009 RMK A01 T00850053  RH  081%=      5-min Rain = 0
KCO1 230312Z 15004KT 08/05 A3009 RMK A01 T00840053  RH  081%=      5-min Rain = 0
KCO1 230313Z 15005KT 08/05 A3009 RMK A01 T00840054  RH  081%=      5-min Rain = 0
KCO1 230314Z 15005KT 08/05 A3009 RMK A01 T00840054  RH  081%=      5-min Rain = 0
KCO1 230315Z 15005KT 08/05 A3009 RMK A01 T00840054  RH  081%=      5-min Rain = 0
KCO1 230316Z 14005KT 08/05 A3009 RMK A01 T00840054  RH  081%=      5-min Rain = 0
KCO1 230317Z 14005KT 08/05 A3009 RMK A01 T00840054  RH  082%=      5-min Rain = 0
KCO1 230318Z 14005KT 08/05 A3009 RMK A01 T00830053  RH  082%=      5-min Rain = 0
KCO1 230319Z 14005KT 08/05 A3009 RMK A01 T00830053  RH  082%=      5-min Rain = 0
KCO1 230320Z 15005KT 08/05 A3009 RMK A01 T00820053  RH  082%=      5-min Rain = 0
KCO1 230321Z 14005KT 08/05 A3009 RMK A01 T00820053  RH  082%=      5-min Rain = 0
KCO1 230322Z 14005KT 08/05 A3009 RMK A01 T00810053  RH  082%=      5-min Rain = 0
KCO1 230323Z 14005KT 08/05 A3009 RMK A01 T00810053  RH  082%=      5-min Rain = 0
KCO1 230324Z 14005KT 08/05 A3009 RMK A01 T00810053  RH  082%=      5-min Rain = 0
KCO1 230325Z 14005KT 08/05 A3009 RMK A01 T00810053  RH  082%=      5-min Rain = 0
KCO1 230326Z 14006KT 08/05 A3009 RMK A01 T00810053  RH  082%=      5-min Rain = 0
KCO1 230327Z 14006KT 08/05 A3009 RMK A01 T00810052  RH  082%=      5-min Rain = 0
KCO1 230328Z 15005KT 08/05 A3009 RMK A01 T00800052  RH  083%=      5-min Rain = 0
KCO1 230329Z 15005KT 08/05 A3009 RMK A01 T00810053  RH  083%=      5-min Rain = 0
KCO1 230330Z 15004KT 08/05 A3009 RMK A01 T00800052  RH  082%=      5-min Rain = 0
KCO1 230331Z 15004KT 08/05 A3009 RMK A01 T00810053  RH  082%=      5-min Rain = 0
KCO1 230332Z 15004KT 08/05 A3009 RMK A01 T00810052  RH  082%=      5-min Rain = 0
KCO1 230333Z 15004KT 08/05 A3009 RMK A01 T00810052  RH  082%=      5-min Rain = 0
KCO1 230334Z 14004KT 08/05 A3009 RMK A01 T00810052  RH  082%=      5-min Rain = 0
KCO1 230335Z 14005KT 08/05 A3009 RMK A01 T00810052  RH  082%=      5-min Rain = 0
KCO1 230336Z 14005KT 08/05 A3009 RMK A01 T00810052  RH  082%=      5-min Rain = 0
KCO1 230337Z 14005KT 08/05 A3009 RMK A01 T00810052  RH  082%=      5-min Rain = 0
KCO1 230338Z 13005KT 08/05 A3009 RMK A01 T00810052  RH  082%=      5-min Rain = 0
KCO1 230339Z 13005KT 08/05 A3009 RMK A01 T00810052  RH  082%=      5-min Rain = 0
KCO1 230340Z 13005KT 08/05 A3009 RMK A01 T00800051  RH  082%=      5-min Rain = 0
KCO1 230341Z 12004KT 08/05 A3009 RMK A01 T00800051  RH  082%=      5-min Rain = 0
KCO1 230342Z 11005KT 08/05 A3009 RMK A01 T00800052  RH  082%=      5-min Rain = 0
KCO1 230343Z 10004KT 08/05 A3009 RMK A01 T00790052  RH  083%=      5-min Rain = 0
KCO1 230344Z 09004KT 08/05 A3009 RMK A01 T00790052  RH  083%=      5-min Rain = 0
KCO1 230345Z 08004KT 08/05 A3009 RMK A01 T00790052  RH  083%=      5-min Rain = 0
KCO1 230346Z 08004KT 08/05 A3009 RMK A01 T00780051  RH  083%=      5-min Rain = 0
KCO1 230347Z 08004KT 08/05 A3009 RMK A01 T00780051  RH  083%=      5-min Rain = 0
KCO1 230348Z 08004KT 08/05 A3009 RMK A01 T00770051  RH  084%=      5-min Rain = 0
KCO1 230349Z 08004KT 08/05 A3009 RMK A01 T00770051  RH  084%=      5-min Rain = 0
KCO1 230350Z 08003KT 08/05 A3009 RMK A01 T00770051  RH  084%=      5-min Rain = 0
KCO1 230351Z 07003KT 08/05 A3009 RMK A01 T00770051  RH  084%=      5-min Rain = 0
KCO1 230352Z 07003KT 08/05 A3009 RMK A01 T00770051  RH  084%=      5-min Rain = 0
KCO1 230353Z 06002KT 08/05 A3009 RMK A01 T00770052  RH  084%=      5-min Rain = 0
KCO1 230354Z 06003KT 08/05 A301 RMK A01 T00770052  RH  084%=      5-min Rain = 0
KCO1 230355Z 07002KT 08/05 A301 RMK A01 T00760051  RH  084%=      5-min Rain = 0
KCO1 230356Z 08002KT 08/05 A301 RMK A01 T00750050  RH  084%=      5-min Rain = 0
KCO1 230357Z 09002KT 08/05 A301 RMK A01 T00750050  RH  084%=      5-min Rain = 0
KCO1 230358Z 09002KT 08/05 A301 RMK A01 T00750050  RH  084%=      5-min Rain = 0
KCO1 230359Z 10002KT 08/05 A301 RMK A01 T00750050  RH  084%=      5-min Rain = 0
KCO1 230400Z 09002KT 08/05 A301 RMK A01 T00750050  RH  084%=      5-min Rain = 0
KCO1 230401Z 10002KT 08/05 A301 RMK A01 T00750050  RH  084%=      5-min Rain = 0
KCO1 230402Z 10002KT 08/05 A301 RMK A01 T00750050  RH  084%=      5-min Rain = 0
KCO1 230403Z 10001KT 08/05 A301 RMK A01 T00750050  RH  084%=      5-min Rain = 0
KCO1 230404Z 10001KT 08/05 A301 RMK A01 T00750050  RH  084%=      5-min Rain = 0
KCO1 230405Z 10000KT 08/05 A301 RMK A01 T00750050  RH  084%=      5-min Rain = 0
KCO1 230406Z 10000KT 08/05 A301 RMK A01 T00750049  RH  084%=      5-min Rain = 0
KCO1 230407Z 14000KT 07/05 A301 RMK A01 T00740049  RH  084%=      5-min Rain = 0
KCO1 230408Z 15001KT 07/05 A301 RMK A01 T00740049  RH  084%=      5-min Rain = 0
KCO1 230409Z 17001KT 08/05 A301 RMK A01 T00750049  RH  084%=      5-min Rain = 0
KCO1 230410Z 17001KT 08/05 A301 RMK A01 T00750050  RH  084%=      5-min Rain = 0
KCO1 230411Z 17001KT 08/05 A301 RMK A01 T00750050  RH  084%=      5-min Rain = 0
KCO1 230412Z 16002KT 08/05 A301 RMK A01 T00750050  RH  084%=      5-min Rain = 0
KCO1 230413Z 15002KT 08/05 A301 RMK A01 T00750050  RH  084%=      5-min Rain = 0
KCO1 230414Z 15002KT 08/05 A301 RMK A01 T00750050  RH  084%=      5-min Rain = 0
KCO1 230415Z 15002KT 08/05 A301 RMK A01 T00750050  RH  084%=      5-min Rain = 0
KCO1 230416Z 16002KT 08/05 A301 RMK A01 T00750050  RH  084%=      5-min Rain = 0
KCO1 230417Z 16002KT 08/05 A301 RMK A01 T00750050  RH  084%=      5-min Rain = 0
KCO1 230418Z 18002KT 08/05 A301 RMK A01 T00750050  RH  084%=      5-min Rain = 0
KCO1 230419Z 19002KT 07/05 A301 RMK A01 T00740049  RH  084%=      5-min Rain = 0
KCO1 230420Z 17003KT 07/05 A301 RMK A01 T00730048  RH  084%=      5-min Rain = 0
KCO1 230421Z 18003KT 07/05 A301 RMK A01 T00720047  RH  084%=      5-min Rain = 0
KCO1 230422Z 17003KT 07/05 A301 RMK A01 T00710047  RH  085%=      5-min Rain = 0
KCO1 230423Z 18003KT 07/05 A301 RMK A01 T00710048  RH  085%=      5-min Rain = 0
KCO1 230424Z 17003KT 07/05 A301 RMK A01 T00710047  RH  085%=      5-min Rain = 0
KCO1 230425Z 17003KT 07/05 A301 RMK A01 T00710048  RH  085%=      5-min Rain = 0
KCO1 230426Z 17004KT 07/05 A301 RMK A01 T00710048  RH  085%=      5-min Rain = 0
KCO1 230427Z 16004KT 07/05 A301 RMK A01 T00710048  RH  085%=      5-min Rain = 0
KCO1 230428Z 17004KT 07/05 A301 RMK A01 T00710048  RH  085%=      5-min Rain = 0
KCO1 230429Z 17004KT 07/05 A301 RMK A01 T00710048  RH  085%=      5-min Rain = 0
KCO1 230430Z 18004KT 07/05 A301 RMK A01 T00700047  RH  085%=      5-min Rain = 0
KCO1 230431Z 19004KT 07/05 A301 RMK A01 T00700048  RH  085%=      5-min Rain = 0
KCO1 230432Z 18005KT 07/05 A301 RMK A01 T00700048  RH  086%=      5-min Rain = 0
KCO1 230433Z 19005KT 07/05 A301 RMK A01 T00700048  RH  086%=      5-min Rain = 0
KCO1 230434Z 19005KT 07/05 A301 RMK A01 T00700048  RH  085%=      5-min Rain = 0
KCO1 230435Z 19005KT 07/05 A301 RMK A01 T00710048  RH  085%=      5-min Rain = 0
KCO1 230436Z 19005KT 07/05 A301 RMK A01 T00720049  RH  085%=      5-min Rain = 0
KCO1 230437Z 19005KT 07/05 A301 RMK A01 T00720049  RH  085%=      5-min Rain = 0
KCO1 230438Z 19005KT 07/05 A301 RMK A01 T00720048  RH  085%=      5-min Rain = 0
KCO1 230439Z 19005KT 07/05 A301 RMK A01 T00720048  RH  085%=      5-min Rain = 0
KCO1 230440Z 18006KT 07/05 A301 RMK A01 T00730048  RH  084%=      5-min Rain = 0
KCO1 230441Z 19005KT 07/05 A301 RMK A01 T00730048  RH  084%=      5-min Rain = 0
KCO1 230442Z 19005KT 07/05 A301 RMK A01 T00730048  RH  084%=      5-min Rain = 0
KCO1 230443Z 20005KT 07/05 A301 RMK A01 T00730048  RH  084%=      5-min Rain = 0
KCO1 230444Z 19005KT 07/05 A301 RMK A01 T00720047  RH  084%=      5-min Rain = 0
KCO1 230445Z 19005KT 07/05 A3011 RMK A01 T00720048  RH  084%=      5-min Rain = 0
KCO1 230446Z 19005KT 07/05 A3011 RMK A01 T00720048  RH  084%=      5-min Rain = 0
KCO1 230447Z 18005KT 07/05 A3011 RMK A01 T00720047  RH  085%=      5-min Rain = 0
KCO1 230448Z 18005KT 07/05 A3011 RMK A01 T00710047  RH  085%=      5-min Rain = 0
KCO1 230449Z 18005KT 07/05 A3011 RMK A01 T00710047  RH  085%=      5-min Rain = 0
KCO1 230450Z 18006KT 07/05 A3011 RMK A01 T00700047  RH  085%=      5-min Rain = 0
KCO1 230451Z 18006KT 07/05 A3011 RMK A01 T00700047  RH  086%=      5-min Rain = 0
KCO1 230452Z 19006KT 07/05 A3011 RMK A01 T00690047  RH  086%=      5-min Rain = 0
KCO1 230453Z 19005KT 07/05 A3011 RMK A01 T00690047  RH  086%=      5-min Rain = 0
KCO1 230454Z 19006KT 07/05 A3011 RMK A01 T00680047  RH  086%=      5-min Rain = 0
KCO1 230455Z 19006KT 07/05 A3011 RMK A01 T00680047  RH  086%=      5-min Rain = 0
KCO1 230456Z 19006KT 07/05 A3011 RMK A01 T00690047  RH  086%=      5-min Rain = 0
KCO1 230457Z 19006KT 07/05 A3011 RMK A01 T00690047  RH  086%=      5-min Rain = 0
KCO1 230458Z 19006KT 07/05 A3011 RMK A01 T00690047  RH  086%=      5-min Rain = 0
KCO1 230459Z 19007KT 07/05 A3011 RMK A01 T00690047  RH  086%=      5-min Rain = 0
KCO1 230500Z 19006KT 07/05 A3011 RMK A01 T00690047  RH  086%=      5-min Rain = 0
KCO1 230501Z 19006KT 07/05 A3011 RMK A01 T00700048  RH  086%=      5-min Rain = 0
KCO1 230502Z 19006KT 07/05 A3011 RMK A01 T00690048  RH  086%=      5-min Rain = 0
KCO1 230503Z 19006KT 07/05 A3011 RMK A01 T00700048  RH  086%=      5-min Rain = 0
KCO1 230504Z 20007KT 07/05 A3011 RMK A01 T00700049  RH  086%=      5-min Rain = 0
KCO1 230505Z 19007KT 07/05 A3011 RMK A01 T00710049  RH  086%=      5-min Rain = 0
KCO1 230506Z 19007KT 07/05 A3011 RMK A01 T00720049  RH  085%=      5-min Rain = 0
KCO1 230507Z 19007KT 07/05 A301 RMK A01 T00720048  RH  085%=      5-min Rain = 0
KCO1 230508Z 20007KT 07/05 A3011 RMK A01 T00720048  RH  085%=      5-min Rain = 0
KCO1 230509Z 20006KT 07/05 A3011 RMK A01 T00720048  RH  085%=      5-min Rain = 0
KCO1 230510Z 21006KT 07/05 A3011 RMK A01 T00720048  RH  085%=      5-min Rain = 0
KCO1 230511Z 21006KT 07/05 A3011 RMK A01 T00720048  RH  085%=      5-min Rain = 0
KCO1 230512Z 21005KT 07/05 A3011 RMK A01 T00730049  RH  085%=      5-min Rain = 0
KCO1 230513Z 21005KT 07/05 A3011 RMK A01 T00730049  RH  085%=      5-min Rain = 0
KCO1 230514Z 21006KT 07/05 A301 RMK A01 T00730049  RH  085%=      5-min Rain = 0
KCO1 230515Z 20007KT 07/05 A301 RMK A01 T00740050  RH  085%=      5-min Rain = 0
KCO1 230516Z 21007KT 07/05 A301 RMK A01 T00740050  RH  084%=      5-min Rain = 0
KCO1 230517Z 20007KT 08/05 A301 RMK A01 T00750050  RH  084%=      5-min Rain = 0
KCO1 230518Z 20007KT 08/05 A301 RMK A01 T00760051  RH  084%=      5-min Rain = 0
KCO1 230519Z 20007KT 08/05 A301 RMK A01 T00780052  RH  084%=      5-min Rain = 0
KCO1 230520Z 20007KT 08/05 A301 RMK A01 T00780052  RH  083%=      5-min Rain = 0
KCO1 230521Z 20008KT 08/05 A301 RMK A01 T00780051  RH  083%=      5-min Rain = 0
KCO1 230522Z 20007KT 08/05 A301 RMK A01 T00790052  RH  083%=      5-min Rain = 0
KCO1 230523Z 20007KT 08/05 A301 RMK A01 T00790052  RH  083%=      5-min Rain = 0
KCO1 230524Z 20007KT 08/05 A301 RMK A01 T00790052  RH  083%=      5-min Rain = 0
KCO1 230525Z 20006KT 08/05 A301 RMK A01 T00800052  RH  083%=      5-min Rain = 0
KCO1 230526Z 21007KT 08/05 A301 RMK A01 T00800053  RH  083%=      5-min Rain = 0
KCO1 230527Z 21006KT 08/05 A301 RMK A01 T00810053  RH  082%=      5-min Rain = 0
KCO1 230528Z 20006KT 08/05 A301 RMK A01 T00820053  RH  082%=      5-min Rain = 0
KCO1 230529Z 20007KT 08/05 A301 RMK A01 T00820052  RH  082%=      5-min Rain = 0
KCO1 230530Z 20007KT 08/05 A301 RMK A01 T00820052  RH  081%=      5-min Rain = 0
KCO1 230531Z 20007KT 08/05 A301 RMK A01 T00820052  RH  081%=      5-min Rain = 0
KCO1 230532Z 20006KT 08/05 A301 RMK A01 T00810051  RH  082%=      5-min Rain = 0
KCO1 230533Z 21006KT 08/05 A301 RMK A01 T00800051  RH  082%=      5-min Rain = 0
KCO1 230534Z 20006KT 08/05 A301 RMK A01 T00800052  RH  082%=      5-min Rain = 0
KCO1 230535Z 20007KT 08/05 A301 RMK A01 T00800052  RH  082%=      5-min Rain = 0
KCO1 230536Z 20007KT 08/05 A301 RMK A01 T00800051  RH  082%=      5-min Rain = 0
KCO1 230537Z 20007KT 08/05 A301 RMK A01 T00790051  RH  082%=      5-min Rain = 0
KCO1 230538Z 20007KT 08/05 A301 RMK A01 T00790051  RH  082%=      5-min Rain = 0
KCO1 230539Z 20008KT 08/05 A301 RMK A01 T00790051  RH  083%=      5-min Rain = 0
KCO1 230540Z 20008KT 08/05 A301 RMK A01 T00790051  RH  083%=      5-min Rain = 0
KCO1 230541Z 20007KT 08/05 A301 RMK A01 T00790051  RH  083%=      5-min Rain = 0
KCO1 230542Z 20007KT 08/05 A301 RMK A01 T00790051  RH  083%=      5-min Rain = 0
KCO1 230543Z 20007KT 08/05 A301 RMK A01 T00800052  RH  083%=      5-min Rain = 0
KCO1 230544Z 20007KT 08/05 A301 RMK A01 T00810052  RH  082%=      5-min Rain = 0
KCO1 230545Z 20006KT 08/05 A301 RMK A01 T00810052  RH  082%=      5-min Rain = 0
KCO1 230546Z 20006KT 08/05 A301 RMK A01 T00810052  RH  082%=      5-min Rain = 0
KCO1 230547Z 20006KT 08/05 A301 RMK A01 T00820052  RH  081%=      5-min Rain = 0
KCO1 230548Z 20006KT 08/05 A301 RMK A01 T00820052  RH  081%=      5-min Rain = 0
KCO1 230549Z 20006KT 08/05 A301 RMK A01 T00820052  RH  081%=      5-min Rain = 0
KCO1 230550Z 20006KT 08/05 A301 RMK A01 T00820051  RH  081%=      5-min Rain = 0
KCO1 230551Z 20005KT 08/05 A301 RMK A01 T00820051  RH  081%=      5-min Rain = 0
KCO1 230552Z 20006KT 08/05 A301 RMK A01 T00810051  RH  081%=      5-min Rain = 0
KCO1 230553Z 20005KT 08/05 A301 RMK A01 T00810052  RH  081%=      5-min Rain = 0
KCO1 230554Z 20005KT 08/05 A301 RMK A01 T00810051  RH  081%=      5-min Rain = 0
KCO1 230555Z 20005KT 08/05 A301 RMK A01 T00800051  RH  082%=      5-min Rain = 0
KCO1 230556Z 19005KT 08/05 A301 RMK A01 T00790050  RH  082%=      5-min Rain = 0
KCO1 230557Z 20005KT 08/05 A301 RMK A01 T00780050  RH  082%=      5-min Rain = 0
KCO1 230558Z 21004KT 08/05 A301 RMK A01 T00770049  RH  083%=      5-min Rain = 0
KCO1 230559Z 21004KT 08/05 A301 RMK A01 T00760049  RH  083%=      5-min Rain = 0

Page generated in 0.0749 seconds.